| time (UTC) | temp F | wind direction | speed MPH | gust MPH | rain 1hr in | rain 24hr in | rain mn in | humidity % | barometer mb |
| 20260507143309 | 47 | 80 | 5.0 | 12.0 | 0.00 | 0.11 | 0.02 | 94 | 1016.4 |
| 20260507143230 | 47 | 50 | 5.0 | 12.0 | 0.00 | 0.11 | 0.02 | 94 | 1016.3 |
| 20260507143224 | 47 | 57 | 5.0 | 12.0 | 0.00 | 0.11 | 0.02 | 94 | 1016.4 |
| 20260507143216 | 47 | 58 | 5.0 | 12.0 | 0.00 | 0.11 | 0.02 | 94 | 1016.4 |
| 20260507143151 | 47 | 88 | 5.0 | 12.0 | 0.00 | 0.11 | 0.02 | 94 | 1016.4 |
| 20260507142809 | 47 | 38 | 5.0 | 12.0 | 0.00 | 0.11 | 0.02 | 94 | 1016.3 |
| 20260507142708 | 47 | 74 | 4.0 | 12.0 | 0.00 | 0.11 | 0.02 | 94 | 1016.3 |
| 20260507142609 | 47 | 45 | 4.0 | 12.0 | 0.00 | 0.11 | 0.02 | 94 | 1016.2 |
| 20260507142509 | 47 | 22 | 4.0 | 12.0 | 0.00 | 0.11 | 0.02 | 94 | 1016.2 |
| 20260507142442 | 47 | 42 | 4.0 | 12.0 | 0.00 | 0.11 | 0.02 | 94 | 1016.2 |
| 20260507142430 | 47 | 46 | 4.0 | 11.0 | 0.00 | 0.11 | 0.02 | 94 | 1016.2 |
| 20260507142244 | 47 | 58 | 5.0 | 12.0 | 0.00 | 0.11 | 0.02 | 94 | 1016.2 |
| 20260507142230 | 47 | 40 | 5.0 | 12.0 | 0.00 | 0.11 | 0.02 | 94 | 1016.2 |
| 20260507142009 | 47 | 18 | 5.0 | 12.0 | 0.00 | 0.11 | 0.02 | 94 | 1016.3 |
| 20260507141908 | 47 | 53 | 5.0 | 12.0 | 0.00 | 0.11 | 0.02 | 94 | 1016.1 |
| 20260507141808 | 47 | 61 | 5.0 | 12.0 | 0.00 | 0.11 | 0.02 | 94 | 1016.2 |
| 20260507141709 | 47 | 28 | 5.0 | 12.0 | 0.00 | 0.11 | 0.02 | 94 | 1016.1 |
| 20260507141630 | 47 | 70 | 5.0 | 12.0 | 0.00 | 0.11 | 0.02 | 94 | 1016.1 |
| 20260507141626 | 47 | 64 | 5.0 | 12.0 | 0.00 | 0.11 | 0.02 | 94 | 1016.0 |
| 20260507141614 | 47 | 19 | 5.0 | 12.0 | 0.00 | 0.11 | 0.02 | 94 | 1016.1 |
| 20260507141550 | 47 | 315 | 5.0 | 12.0 | 0.00 | 0.11 | 0.02 | 94 | 1016.1 |
| 20260507141208 | 47 | 58 | 5.0 | 15.0 | 0.00 | 0.11 | 0.02 | 94 | 1016.0 |
| 20260507141153 | 47 | 48 | 5.0 | 15.0 | 0.00 | 0.11 | 0.02 | 94 | 1015.8 |
| 20260507141147 | 47 | 42 | 5.0 | 15.0 | 0.00 | 0.11 | 0.02 | 94 | 1015.9 |
| 20260507141135 | 47 | 44 | 5.0 | 15.0 | 0.00 | 0.11 | 0.02 | 94 | 1016.0 |
| 20260507141112 | 47 | 64 | 5.0 | 15.0 | 0.00 | 0.11 | 0.02 | 94 | 1015.9 |
| 20260507140947 | 47 | 30 | 5.0 | 15.0 | 0.00 | 0.11 | 0.02 | 94 | 1015.9 |
| 20260507140609 | 47 | 47 | 5.0 | 15.0 | 0.00 | 0.11 | 0.02 | 94 | 1015.9 |
| 20260507140509 | 47 | 16 | 5.0 | 15.0 | 0.00 | 0.11 | 0.02 | 94 | 1015.9 |
| 20260507140409 | 47 | 15 | 5.0 | 15.0 | 0.00 | 0.11 | 0.02 | 94 | 1015.8 |
| 20260507140310 | 47 | 44 | 4.0 | 15.0 | 0.00 | 0.11 | 0.02 | 94 | 1015.8 |
| 20260507140245 | 47 | 72 | 4.0 | 14.0 | 0.00 | 0.11 | 0.02 | 94 | 1015.8 |
| 20260507140232 | 47 | 55 | 4.0 | 14.0 | 0.00 | 0.11 | 0.02 | 94 | 1015.8 |
| 20260507140010 | 47 | 58 | 4.0 | 14.0 | 0.00 | 0.11 | 0.02 | 94 | 1015.8 |
| 20260507135909 | 47 | 42 | 4.0 | 14.0 | 0.00 | 0.11 | 0.02 | 94 | 1015.8 |
| 20260507135808 | 47 | 57 | 5.0 | 14.0 | 0.00 | 0.11 | 0.02 | 94 | 1015.8 |
| 20260507135736 | 46 | 36 | 5.0 | 14.0 | 0.00 | 0.11 | 0.02 | 94 | 1015.8 |
| 20260507135727 | 47 | 74 | 5.0 | 14.0 | 0.00 | 0.11 | 0.02 | 94 | 1015.8 |
| 20260507135506 | 46 | 44 | 5.0 | 13.0 | 0.00 | 0.11 | 0.02 | 94 | 1015.7 |
| 20260507135406 | 46 | 82 | 6.0 | 15.0 | 0.00 | 0.11 | 0.02 | 94 | 1015.7 |
| 20260507135352 | 46 | 68 | 5.0 | 13.0 | 0.00 | 0.11 | 0.02 | 94 | 1015.8 |
| 20260507135346 | 46 | 40 | 5.0 | 15.0 | 0.00 | 0.11 | 0.02 | 94 | 1015.7 |
| 20260507135341 | 46 | 51 | 6.0 | 15.0 | 0.00 | 0.11 | 0.02 | 94 | 1015.7 |
| 20260507135335 | 46 | 41 | 6.0 | 15.0 | 0.00 | 0.11 | 0.02 | 94 | 1015.8 |
| 20260507135325 | 46 | 65 | 6.0 | 15.0 | 0.00 | 0.11 | 0.02 | 94 | 1015.7 |
| 20260507135301 | 46 | 65 | 6.0 | 15.0 | 0.00 | 0.11 | 0.02 | 94 | 1015.8 |
| 20260507135124 | 46 | 56 | 6.0 | 15.0 | 0.00 | 0.11 | 0.02 | 94 | 1015.8 |
| 20260507134847 | 46 | 67 | 5.0 | 13.0 | 0.00 | 0.11 | 0.02 | 94 | 1015.7 |
| 20260507134841 | 46 | 16 | 6.0 | 15.0 | 0.00 | 0.11 | 0.02 | 94 | 1015.7 |
| 20260507134836 | 46 | 49 | 6.0 | 15.0 | 0.00 | 0.11 | 0.02 | 94 | 1015.7 |
| 20260507134822 | 46 | 63 | 6.0 | 15.0 | 0.00 | 0.11 | 0.02 | 94 | 1015.7 |
| 20260507134201 | 46 | 40 | 5.0 | 13.0 | 0.00 | 0.11 | 0.02 | 94 | 1015.7 |
| 20260507134124 | 46 | 54 | 5.0 | 16.0 | 0.00 | 0.11 | 0.02 | 94 | 1015.6 |
| 20260507134119 | 46 | 67 | 6.0 | 16.0 | 0.00 | 0.11 | 0.02 | 94 | 1015.6 |
| 20260507134108 | 46 | 51 | 5.0 | 13.0 | 0.00 | 0.11 | 0.02 | 94 | 1015.7 |
| 20260507134046 | 46 | 67 | 5.0 | 13.0 | 0.00 | 0.11 | 0.02 | 94 | 1015.6 |
| 20260507133700 | 46 | 26 | 6.0 | 16.0 | 0.00 | 0.11 | 0.02 | 94 | 1015.6 |
| 20260507133601 | 46 | 68 | 5.0 | 16.0 | 0.00 | 0.11 | 0.02 | 94 | 1015.5 |
| 20260507133502 | 46 | 55 | 5.0 | 16.0 | 0.00 | 0.11 | 0.02 | 94 | 1015.5 |
| 20260507133401 | 46 | 45 | 5.0 | 16.0 | 0.00 | 0.11 | 0.02 | 94 | 1015.5 |
| 20260507133336 | 46 | 355 | 5.0 | 16.0 | 0.00 | 0.11 | 0.02 | 94 | 1015.5 |
| 20260507133324 | 47 | 63 | 5.0 | 16.0 | 0.00 | 0.11 | 0.02 | 94 | 1015.4 |
| 20260507133102 | 46 | 69 | 5.0 | 16.0 | 0.00 | 0.11 | 0.02 | 94 | 1015.5 |
| 20260507133000 | 46 | 61 | 5.0 | 16.0 | 0.00 | 0.11 | 0.02 | 94 | 1015.6 |
| 20260507132935 | 47 | 76 | 5.0 | 13.0 | 0.00 | 0.11 | 0.02 | 94 | 1015.6 |
| 20260507132925 | 47 | 69 | 5.0 | 13.0 | 0.00 | 0.11 | 0.02 | 94 | 1015.6 |
| 20260507132700 | 47 | 43 | 5.0 | 13.0 | 0.00 | 0.11 | 0.02 | 94 | 1015.6 |
| 20260507132649 | 46 | 42 | 6.0 | 16.0 | 0.00 | 0.11 | 0.02 | 94 | 1015.7 |
| 20260507132645 | 46 | 40 | 6.0 | 16.0 | 0.00 | 0.11 | 0.02 | 94 | 1015.6 |
| 20260507132632 | 47 | 83 | 6.0 | 14.0 | 0.00 | 0.11 | 0.02 | 94 | 1015.6 |
| 20260507132449 | 46 | 56 | 6.0 | 16.0 | 0.00 | 0.11 | 0.02 | 94 | 1015.7 |
| 20260507132325 | 46 | 22 | 6.0 | 16.0 | 0.00 | 0.11 | 0.02 | 94 | 1015.7 |
| 20260507132100 | 46 | 27 | 6.0 | 16.0 | 0.00 | 0.11 | 0.02 | 94 | 1015.7 |
| 20260507132000 | 46 | 29 | 6.0 | 16.0 | 0.00 | 0.11 | 0.02 | 94 | 1015.6 |
| 20260507131859 | 46 | 65 | 6.0 | 16.0 | 0.00 | 0.11 | 0.02 | 94 | 1015.7 |
| 20260507131800 | 46 | 61 | 6.0 | 16.0 | 0.00 | 0.11 | 0.02 | 94 | 1015.7 |
| 20260507131701 | 46 | 68 | 6.0 | 16.0 | 0.00 | 0.11 | 0.02 | 94 | 1015.7 |
| 20260507131602 | 46 | 59 | 6.0 | 16.0 | 0.00 | 0.11 | 0.02 | 94 | 1015.8 |
| 20260507131500 | 46 | 22 | 5.0 | 14.0 | 0.00 | 0.11 | 0.02 | 94 | 1015.8 |
| 20260507131434 | 46 | 63 | 5.0 | 14.0 | 0.00 | 0.11 | 0.02 | 94 | 1015.7 |
| 20260507131423 | 46 | 5 | 6.0 | 14.0 | 0.00 | 0.11 | 0.02 | 94 | 1015.6 |
| 20260507131201 | 46 | 56 | 5.0 | 14.0 | 0.00 | 0.11 | 0.02 | 94 | 1015.8 |
| 20260507131100 | 46 | 22 | 5.0 | 14.0 | 0.00 | 0.11 | 0.02 | 94 | 1015.7 |
| 20260507131001 | 46 | 45 | 5.0 | 14.0 | 0.00 | 0.11 | 0.02 | 94 | 1015.7 |
| 20260507130858 | 46 | 26 | 5.0 | 14.0 | 0.00 | 0.11 | 0.02 | 94 | 1015.7 |
| 20260507130759 | 46 | 40 | 5.0 | 14.0 | 0.00 | 0.11 | 0.02 | 94 | 1015.6 |
| 20260507130659 | 46 | 70 | 5.0 | 14.0 | 0.00 | 0.11 | 0.02 | 94 | 1015.5 |
| 20260507130559 | 46 | 5 | 5.0 | 14.0 | 0.00 | 0.11 | 0.02 | 94 | 1015.6 |
| 20260507130458 | 46 | 57 | 5.0 | 14.0 | 0.00 | 0.11 | 0.02 | 94 | 1015.4 |
| 20260507130357 | 46 | 33 | 5.0 | 13.0 | 0.00 | 0.11 | 0.02 | 94 | 1015.7 |
| 20260507130255 | 46 | 39 | 5.0 | 13.0 | 0.00 | 0.11 | 0.02 | 94 | 1015.6 |
| 20260507130155 | 46 | 51 | 5.0 | 13.0 | 0.00 | 0.11 | 0.02 | 94 | 1015.6 |
| 20260507130055 | 46 | 92 | 5.0 | 13.0 | 0.00 | 0.11 | 0.02 | 94 | 1015.6 |
| 20260507125955 | 46 | 50 | 5.0 | 15.0 | 0.00 | 0.11 | 0.02 | 94 | 1015.6 |
| 20260507125929 | 46 | 51 | 6.0 | 15.0 | 0.00 | 0.11 | 0.02 | 94 | 1015.5 |
| 20260507125917 | 46 | 40 | 6.0 | 15.0 | 0.00 | 0.11 | 0.02 | 94 | 1015.6 |
| 20260507125655 | 46 | 20 | 6.0 | 15.0 | 0.00 | 0.11 | 0.02 | 94 | 1015.5 |
| 20260507125554 | 46 | 58 | 6.0 | 15.0 | 0.00 | 0.11 | 0.02 | 94 | 1015.5 |
| 20260507125455 | 46 | 46 | 7.0 | 15.0 | 0.00 | 0.11 | 0.02 | 94 | 1015.4 |
| 20260507125354 | 46 | 51 | 7.0 | 15.0 | 0.00 | 0.11 | 0.02 | 94 | 1015.5 |
| 20260507125255 | 46 | 58 | 7.0 | 15.0 | 0.00 | 0.11 | 0.02 | 94 | 1015.5 |
| 20260507125154 | 46 | 80 | 7.0 | 17.0 | 0.00 | 0.11 | 0.02 | 94 | 1015.4 |
| 20260507125055 | 46 | 90 | 7.0 | 17.0 | 0.00 | 0.11 | 0.02 | 94 | 1015.5 |
| 20260507124954 | 46 | 60 | 7.0 | 17.0 | 0.00 | 0.11 | 0.02 | 94 | 1015.4 |
| 20260507124854 | 46 | 28 | 7.0 | 17.0 | 0.00 | 0.11 | 0.02 | 94 | 1015.4 |
| 20260507124755 | 46 | 32 | 7.0 | 17.0 | 0.00 | 0.11 | 0.02 | 94 | 1015.4 |
| 20260507124732 | 46 | 39 | 7.0 | 17.0 | 0.00 | 0.11 | 0.02 | 94 | 1015.4 |
| 20260507124718 | 46 | 65 | 7.0 | 17.0 | 0.00 | 0.11 | 0.02 | 94 | 1015.4 |
| 20260507124454 | 46 | 43 | 7.0 | 17.0 | 0.00 | 0.11 | 0.02 | 94 | 1015.3 |
| 20260507124428 | 46 | 31 | 7.0 | 17.0 | 0.00 | 0.11 | 0.02 | 94 | 1015.3 |
| 20260507124418 | 46 | 65 | 7.0 | 17.0 | 0.00 | 0.11 | 0.02 | 94 | 1015.4 |
| 20260507124153 | 46 | 33 | 7.0 | 16.0 | 0.00 | 0.11 | 0.02 | 94 | 1015.3 |
| 20260507124054 | 46 | 61 | 7.0 | 16.0 | 0.00 | 0.11 | 0.02 | 94 | 1015.4 |
| 20260507123957 | 46 | 48 | 7.0 | 16.0 | 0.00 | 0.11 | 0.02 | 94 | 1015.3 |
| 20260507123855 | 46 | 38 | 6.0 | 16.0 | 0.00 | 0.11 | 0.02 | 94 | 1015.3 |
| 20260507123754 | 46 | 46 | 7.0 | 16.0 | 0.00 | 0.11 | 0.02 | 94 | 1015.4 |
| 20260507123717 | 46 | 65 | 6.0 | 17.0 | 0.00 | 0.11 | 0.02 | 94 | 1015.3 |
| 20260507123711 | 46 | 13 | 6.0 | 17.0 | 0.00 | 0.11 | 0.02 | 94 | 1015.3 |
| 20260507123659 | 46 | 46 | 7.0 | 17.0 | 0.00 | 0.11 | 0.02 | 94 | 1015.3 |
| 20260507123634 | 46 | 47 | 7.0 | 17.0 | 0.00 | 0.11 | 0.02 | 94 | 1015.3 |
| 20260507123322 | 46 | 31 | 6.0 | 17.0 | 0.00 | 0.11 | 0.02 | 94 | 1015.2 |
| 20260507123310 | 46 | 86 | 6.0 | 17.0 | 0.00 | 0.11 | 0.02 | 94 | 1015.3 |
| 20260507123047 | 46 | 55 | 6.0 | 17.0 | 0.00 | 0.11 | 0.02 | 94 | 1015.4 |
| 20260507122942 | 46 | 44 | 6.0 | 17.0 | 0.00 | 0.11 | 0.02 | 94 | 1015.4 |
| 20260507122841 | 45 | 38 | 7.0 | 17.0 | 0.00 | 0.11 | 0.02 | 94 | 1015.3 |
| 20260507122741 | 45 | 46 | 7.0 | 17.0 | 0.00 | 0.11 | 0.02 | 94 | 1015.4 |
| 20260507122640 | 46 | 76 | 6.0 | 16.0 | 0.00 | 0.11 | 0.02 | 94 | 1015.3 |
| 20260507122541 | 46 | 53 | 7.0 | 16.0 | 0.00 | 0.11 | 0.02 | 94 | 1015.4 |
| 20260507122436 | 46 | 53 | 7.0 | 16.0 | 0.00 | 0.11 | 0.02 | 94 | 1015.3 |
| 20260507122335 | 46 | 30 | 7.0 | 16.0 | 0.00 | 0.11 | 0.02 | 94 | 1015.3 |
| 20260507122235 | 46 | 35 | 6.0 | 16.0 | 0.00 | 0.11 | 0.02 | 94 | 1015.2 |
| 20260507122134 | 46 | 62 | 7.0 | 14.0 | 0.00 | 0.11 | 0.02 | 94 | 1015.3 |
| 20260507122034 | 46 | 48 | 7.0 | 14.0 | 0.00 | 0.11 | 0.02 | 94 | 1015.3 |
| 20260507121921 | 46 | 80 | 7.0 | 14.0 | 0.00 | 0.11 | 0.02 | 94 | 1015.3 |
| 20260507121855 | 46 | 59 | 7.0 | 14.0 | 0.00 | 0.11 | 0.02 | 94 | 1015.2 |
| 20260507121845 | 46 | 63 | 7.0 | 14.0 | 0.00 | 0.11 | 0.02 | 94 | 1015.2 |
| 20260507121656 | 46 | 31 | 7.0 | 16.0 | 0.00 | 0.11 | 0.02 | 94 | 1015.3 |
| 20260507121645 | 46 | 9 | 7.0 | 16.0 | 0.00 | 0.11 | 0.02 | 94 | 1015.3 |
| 20260507121415 | 46 | 38 | 7.0 | 16.0 | 0.00 | 0.11 | 0.02 | 94 | 1015.2 |
| 20260507121316 | 46 | 42 | 7.0 | 19.0 | 0.00 | 0.11 | 0.02 | 94 | 1015.2 |
| 20260507121216 | 46 | 38 | 7.0 | 19.0 | 0.00 | 0.11 | 0.02 | 94 | 1015.2 |
| 20260507121115 | 46 | 355 | 7.0 | 19.0 | 0.00 | 0.11 | 0.02 | 94 | 1015.3 |
| 20260507121015 | 46 | 69 | 7.0 | 19.0 | 0.00 | 0.11 | 0.02 | 94 | 1015.3 |
| 20260507120909 | 46 | 32 | 7.0 | 19.0 | 0.00 | 0.11 | 0.02 | 94 | 1015.3 |
| 20260507120807 | 46 | 64 | 7.0 | 19.0 | 0.00 | 0.11 | 0.02 | 94 | 1015.3 |
| 20260507120708 | 46 | 69 | 7.0 | 19.0 | 0.00 | 0.11 | 0.02 | 94 | 1015.2 |
| 20260507120609 | 46 | 52 | 7.0 | 19.0 | 0.00 | 0.11 | 0.02 | 94 | 1015.1 |
| 20260507120509 | 46 | 53 | 7.0 | 19.0 | 0.00 | 0.11 | 0.02 | 94 | 1015.1 |
| 20260507120359 | 46 | 40 | 7.0 | 19.0 | 0.00 | 0.11 | 0.02 | 94 | 1015.0 |
| 20260507120259 | 46 | 26 | 8.0 | 15.0 | 0.00 | 0.11 | 0.02 | 94 | 1015.0 |
| 20260507120159 | 46 | 85 | 7.0 | 15.0 | 0.00 | 0.11 | 0.02 | 94 | 1015.1 |
| 20260507120059 | 46 | 18 | 7.0 | 15.0 | 0.00 | 0.11 | 0.02 | 94 | 1015.0 |
| 20260507120022 | 46 | 0 | 7.0 | 15.0 | 0.00 | 0.11 | 0.02 | 94 | 1015.0 |
| 20260507120014 | 46 | 39 | 7.0 | 15.0 | 0.00 | 0.11 | 0.02 | 94 | 1015.0 |
| 20260507115755 | 46 | 30 | 8.0 | 18.0 | 0.00 | 0.11 | 0.02 | 94 | 1015.0 |
| 20260507115654 | 46 | 59 | 8.0 | 18.0 | 0.00 | 0.11 | 0.02 | 94 | 1015.0 |
| 20260507115558 | 46 | 43 | 8.0 | 18.0 | 0.00 | 0.11 | 0.02 | 94 | 1015.0 |
| 20260507115453 | 46 | 30 | 7.0 | 18.0 | 0.00 | 0.11 | 0.02 | 94 | 1015.0 |
| 20260507115352 | 46 | 87 | 7.0 | 18.0 | 0.00 | 0.11 | 0.02 | 94 | 1015.0 |
| 20260507115251 | 46 | 30 | 7.0 | 18.0 | 0.00 | 0.11 | 0.02 | 94 | 1015.0 |
| 20260507115223 | 46 | 42 | 7.0 | 18.0 | 0.00 | 0.11 | 0.02 | 94 | 1015.0 |
| 20260507115211 | 46 | 50 | 7.0 | 18.0 | 0.00 | 0.11 | 0.02 | 94 | 1014.8 |
| 20260507114948 | 46 | 51 | 7.0 | 18.0 | 0.00 | 0.11 | 0.02 | 94 | 1015.0 |
| 20260507114834 | 46 | 35 | 7.0 | 18.0 | 0.00 | 0.11 | 0.02 | 94 | 1015.0 |
| 20260507114732 | 46 | 22 | 7.0 | 15.0 | 0.00 | 0.11 | 0.02 | 94 | 1015.0 |
| 20260507114634 | 46 | 36 | 7.0 | 15.0 | 0.00 | 0.11 | 0.02 | 94 | 1014.8 |
| 20260507114535 | 46 | 65 | 7.0 | 15.0 | 0.00 | 0.11 | 0.02 | 94 | 1014.8 |
| 20260507114432 | 46 | 84 | 7.0 | 15.0 | 0.00 | 0.11 | 0.02 | 94 | 1015.0 |
| 20260507114327 | 46 | 30 | 7.0 | 15.0 | 0.00 | 0.11 | 0.02 | 94 | 1015.0 |
| 20260507114227 | 46 | 65 | 7.0 | 14.0 | 0.00 | 0.11 | 0.02 | 94 | 1015.0 |
| 20260507114127 | 46 | 57 | 7.0 | 14.0 | 0.00 | 0.11 | 0.02 | 94 | 1015.0 |
| 20260507114026 | 46 | 64 | 7.0 | 14.0 | 0.00 | 0.11 | 0.02 | 94 | 1015.1 |
| 20260507113927 | 46 | 17 | 7.0 | 16.0 | 0.00 | 0.11 | 0.02 | 94 | 1015.0 |
| 20260507113822 | 46 | 40 | 7.0 | 16.0 | 0.00 | 0.11 | 0.02 | 94 | 1015.0 |
| 20260507113722 | 46 | 0 | 7.0 | 16.0 | 0.00 | 0.11 | 0.02 | 94 | 1014.8 |
| 20260507113623 | 46 | 35 | 7.0 | 19.0 | 0.00 | 0.11 | 0.02 | 94 | 1014.8 |
| 20260507113520 | 46 | 19 | 7.0 | 19.0 | 0.00 | 0.11 | 0.02 | 94 | 1014.8 |
| 20260507113420 | 46 | 49 | 7.0 | 19.0 | 0.00 | 0.11 | 0.02 | 94 | 1014.8 |
| 20260507113313 | 46 | 28 | 7.0 | 19.0 | 0.00 | 0.11 | 0.02 | 94 | 1014.8 |
| 20260507113253 | 46 | 73 | 7.0 | 19.0 | 0.00 | 0.11 | 0.02 | 94 | 1014.8 |
| 20260507113240 | 46 | 67 | 7.0 | 19.0 | 0.00 | 0.11 | 0.02 | 94 | 1014.8 |
| 20260507113013 | 46 | 34 | 7.0 | 19.0 | 0.00 | 0.11 | 0.02 | 94 | 1014.7 |
| 20260507112952 | 46 | 42 | 6.0 | 19.0 | 0.00 | 0.11 | 0.02 | 94 | 1014.8 |
| 20260507112806 | 46 | 48 | 6.0 | 19.0 | 0.00 | 0.11 | 0.02 | 94 | 1014.8 |
| 20260507112706 | 46 | 48 | 6.0 | 19.0 | 0.00 | 0.11 | 0.02 | 94 | 1014.8 |
| 20260507112606 | 46 | 60 | 6.0 | 17.0 | 0.00 | 0.11 | 0.02 | 94 | 1014.7 |
| 20260507112508 | 47 | 30 | 6.0 | 17.0 | 0.00 | 0.11 | 0.02 | 94 | 1014.8 |
| 20260507112405 | 46 | 62 | 6.0 | 17.0 | 0.00 | 0.11 | 0.02 | 94 | 1014.8 |
| 20260507112301 | 46 | 47 | 6.0 | 17.0 | 0.00 | 0.11 | 0.02 | 94 | 1014.8 |
| 20260507112200 | 47 | 65 | 6.0 | 17.0 | 0.00 | 0.11 | 0.02 | 94 | 1014.7 |
| 20260507112059 | 47 | 37 | 6.0 | 17.0 | 0.00 | 0.11 | 0.02 | 94 | 1014.7 |
| 20260507111958 | 47 | 58 | 6.0 | 17.0 | 0.00 | 0.11 | 0.02 | 94 | 1014.7 |
| 20260507111859 | 47 | 41 | 6.0 | 17.0 | 0.00 | 0.11 | 0.02 | 94 | 1014.8 |
| 20260507111746 | 47 | 51 | 6.0 | 17.0 | 0.00 | 0.12 | 0.02 | 94 | 1014.8 |
| 20260507111647 | 47 | 5 | 7.0 | 17.0 | 0.00 | 0.12 | 0.02 | 94 | 1014.7 |
| 20260507111545 | 47 | 44 | 7.0 | 17.0 | 0.00 | 0.12 | 0.02 | 94 | 1014.7 |
| 20260507111445 | 46 | 72 | 7.0 | 17.0 | 0.00 | 0.13 | 0.02 | 94 | 1014.7 |
| 20260507111346 | 47 | 326 | 7.0 | 17.0 | 0.00 | 0.13 | 0.02 | 94 | 1014.6 |
| 20260507111239 | 47 | 60 | 6.0 | 17.0 | 0.00 | 0.14 | 0.02 | 94 | 1014.6 |
| 20260507111139 | 47 | 47 | 6.0 | 16.0 | 0.00 | 0.14 | 0.02 | 94 | 1014.5 |
| 20260507111039 | 47 | 72 | 6.0 | 15.0 | 0.00 | 0.14 | 0.02 | 94 | 1014.4 |
| 20260507111016 | 47 | 38 | 6.0 | 16.0 | 0.00 | 0.15 | 0.02 | 94 | 1014.4 |
| 20260507111006 | 47 | 36 | 7.0 | 16.0 | 0.00 | 0.14 | 0.02 | 94 | 1014.4 |
| 20260507110739 | 47 | 28 | 7.0 | 16.0 | 0.00 | 0.16 | 0.02 | 94 | 1014.5 |
| 20260507110658 | 47 | 57 | 6.0 | 16.0 | 0.00 | 0.17 | 0.02 | 94 | 1014.4 |
| 20260507110652 | 47 | 38 | 7.0 | 16.0 | 0.00 | 0.17 | 0.02 | 94 | 1014.3 |
| 20260507110640 | 47 | 60 | 6.0 | 16.0 | 0.00 | 0.16 | 0.02 | 94 | 1014.5 |
| 20260507110619 | 47 | 50 | 6.0 | 16.0 | 0.00 | 0.16 | 0.02 | 94 | 1014.5 |
| 20260507110300 | 47 | 44 | 6.0 | 16.0 | 0.00 | 0.18 | 0.02 | 94 | 1014.4 |
| 20260507110246 | 47 | 5 | 6.0 | 16.0 | 0.00 | 0.17 | 0.02 | 94 | 1014.4 |
| 20260507110058 | 47 | 32 | 7.0 | 19.0 | 0.00 | 0.18 | 0.02 | 94 | 1014.2 |
| 20260507110045 | 47 | 65 | 6.0 | 16.0 | 0.00 | 0.18 | 0.02 | 94 | 1014.3 |
| 20260507105824 | 47 | 50 | 7.0 | 19.0 | 0.00 | 0.19 | 0.02 | 94 | 1014.3 |
| 20260507105718 | 47 | 42 | 7.0 | 19.0 | 0.00 | 0.19 | 0.02 | 94 | 1014.2 |
| 20260507105617 | 47 | 35 | 7.0 | 19.0 | 0.00 | 0.19 | 0.02 | 94 | 1014.3 |
| 20260507105530 | 46 | 44 | 7.0 | 19.0 | 0.00 | 0.22 | 0.02 | 94 | 1014.2 |
| 20260507105519 | 47 | 21 | 7.0 | 19.0 | 0.00 | 0.21 | 0.02 | 94 | 1014.2 |
| 20260507105512 | 46 | 39 | 7.0 | 19.0 | 0.00 | 0.22 | 0.02 | 94 | 1014.2 |
| 20260507105453 | 47 | 69 | 7.0 | 19.0 | 0.00 | 0.21 | 0.02 | 94 | 1014.2 |
| 20260507105146 | 46 | 49 | 7.0 | 19.0 | 0.00 | 0.23 | 0.02 | 94 | 1014.1 |
| 20260507105133 | 46 | 340 | 7.0 | 19.0 | 0.00 | 0.23 | 0.02 | 94 | 1014.2 |
| 20260507104945 | 46 | 29 | 7.0 | 19.0 | 0.00 | 0.23 | 0.02 | 94 | 1014.1 |
| 20260507104934 | 46 | 52 | 7.0 | 19.0 | 0.00 | 0.23 | 0.02 | 94 | 1014.0 |
| 20260507104700 | 46 | 69 | 7.0 | 19.0 | 0.00 | 0.23 | 0.02 | 94 | 1013.9 |
| 20260507104602 | 46 | 34 | 6.0 | 19.0 | 0.00 | 0.24 | 0.02 | 94 | 1014.0 |
| 20260507104501 | 46 | 40 | 6.0 | 19.0 | 0.00 | 0.25 | 0.02 | 94 | 1013.9 |
| 20260507104400 | 47 | 32 | 6.0 | 19.0 | 0.00 | 0.25 | 0.02 | 94 | 1014.0 |
| 20260507104301 | 47 | 40 | 6.0 | 19.0 | 0.00 | 0.25 | 0.02 | 94 | 1014.0 |
| 20260507104157 | 47 | 39 | 6.0 | 16.0 | 0.00 | 0.26 | 0.02 | 94 | 1014.1 |
| 20260507104054 | 47 | 46 | 6.0 | 16.0 | 0.00 | 0.26 | 0.02 | 94 | 1014.1 |
| 20260507103954 | 47 | 26 | 6.0 | 16.0 | 0.00 | 0.26 | 0.02 | 94 | 1014.1 |
| 20260507103856 | 47 | 37 | 6.0 | 16.0 | 0.00 | 0.27 | 0.02 | 94 | 1014.1 |
| 20260507103756 | 47 | 38 | 6.0 | 16.0 | 0.00 | 0.27 | 0.02 | 94 | 1014.1 |
| 20260507103650 | 47 | 355 | 6.0 | 16.0 | 0.00 | 0.27 | 0.02 | 94 | 1014.1 |
| 20260507103611 | 47 | 60 | 6.0 | 16.0 | 0.00 | 0.27 | 0.02 | 94 | 1014.2 |
| 20260507103605 | 47 | 19 | 6.0 | 15.0 | 0.00 | 0.28 | 0.02 | 94 | 1014.1 |
| 20260507103553 | 47 | 61 | 6.0 | 16.0 | 0.00 | 0.27 | 0.02 | 94 | 1014.2 |
| 20260507103531 | 47 | 49 | 6.0 | 16.0 | 0.00 | 0.27 | 0.02 | 94 | 1014.1 |
| 20260507103134 | 47 | 29 | 6.0 | 15.0 | 0.00 | 0.28 | 0.02 | 94 | 1014.1 |
| 20260507103119 | 47 | 49 | 6.0 | 15.0 | 0.00 | 0.29 | 0.02 | 94 | 1014.1 |
| 20260507103102 | 47 | 61 | 6.0 | 15.0 | 0.00 | 0.28 | 0.02 | 94 | 1014.1 |
| 20260507102833 | 47 | 44 | 7.0 | 15.0 | 0.00 | 0.29 | 0.02 | 94 | 1014.1 |
| 20260507102735 | 47 | 53 | 7.0 | 15.0 | 0.00 | 0.29 | 0.02 | 94 | 1014.1 |
| 20260507102703 | 47 | 73 | 7.0 | 14.0 | 0.00 | 0.30 | 0.02 | 94 | 1014.2 |
| 20260507102651 | 47 | 55 | 7.0 | 14.0 | 0.00 | 0.30 | 0.02 | 94 | 1014.1 |
| 20260507102429 | 47 | 58 | 7.0 | 14.0 | 0.00 | 0.30 | 0.02 | 94 | 1014.1 |
| 20260507102412 | 47 | 24 | 7.0 | 14.0 | 0.00 | 0.31 | 0.02 | 94 | 1014.2 |
| 20260507102401 | 47 | 56 | 7.0 | 14.0 | 0.00 | 0.30 | 0.02 | 94 | 1014.2 |
| 20260507102138 | 47 | 50 | 7.0 | 14.0 | 0.00 | 0.32 | 0.02 | 94 | 1014.2 |
| 20260507102132 | 47 | 5 | 7.0 | 14.0 | 0.00 | 0.32 | 0.02 | 94 | 1014.2 |
| 20260507102122 | 47 | 38 | 7.0 | 14.0 | 0.00 | 0.31 | 0.02 | 94 | 1014.2 |
| 20260507102102 | 47 | 50 | 7.0 | 14.0 | 0.00 | 0.31 | 0.02 | 94 | 1014.2 |
| 20260507101723 | 47 | 42 | 6.0 | 14.0 | 0.00 | 0.32 | 0.02 | 94 | 1014.2 |
| 20260507101613 | 47 | 39 | 7.0 | 14.0 | 0.00 | 0.32 | 0.02 | 94 | 1014.1 |
| 20260507101513 | 47 | 57 | 7.0 | 14.0 | 0.00 | 0.32 | 0.02 | 94 | 1014.1 |
| 20260507101412 | 47 | 67 | 7.0 | 18.0 | 0.00 | 0.33 | 0.02 | 94 | 1014.1 |
| 20260507101312 | 47 | 45 | 7.0 | 18.0 | 0.00 | 0.33 | 0.02 | 94 | 1014.0 |
| 20260507101213 | 47 | 41 | 7.0 | 18.0 | 0.00 | 0.33 | 0.02 | 94 | 1014.0 |
| 20260507101111 | 47 | 28 | 7.0 | 18.0 | 0.00 | 0.33 | 0.02 | 94 | 1013.9 |
| 20260507101010 | 47 | 53 | 7.0 | 19.0 | 0.00 | 0.33 | 0.02 | 94 | 1013.8 |
| 20260507100910 | 47 | 19 | 7.0 | 19.0 | 0.00 | 0.33 | 0.02 | 94 | 1013.9 |
| 20260507100809 | 47 | 44 | 7.0 | 19.0 | 0.00 | 0.33 | 0.02 | 94 | 1013.8 |
| 20260507100710 | 47 | 34 | 7.0 | 19.0 | 0.00 | 0.33 | 0.02 | 94 | 1013.9 |
| 20260507100609 | 47 | 37 | 7.0 | 19.0 | 0.00 | 0.34 | 0.02 | 94 | 1013.9 |
| 20260507100510 | 47 | 49 | 7.0 | 19.0 | 0.00 | 0.34 | 0.02 | 94 | 1014.0 |
| 20260507100410 | 47 | 32 | 6.0 | 19.0 | 0.00 | 0.34 | 0.02 | 94 | 1014.1 |
| 20260507100310 | 47 | 55 | 7.0 | 19.0 | 0.00 | 0.34 | 0.02 | 94 | 1014.1 |
| 20260507100210 | 47 | 51 | 7.0 | 19.0 | 0.00 | 0.34 | 0.02 | 94 | 1014.0 |
| 20260507100111 | 47 | 30 | 7.0 | 19.0 | 0.00 | 0.34 | 0.02 | 94 | 1014.1 |
| 20260507100010 | 47 | 38 | 7.0 | 16.0 | 0.00 | 0.34 | 0.02 | 94 | 1014.2 |
| 20260507095906 | 47 | 53 | 7.0 | 20.0 | 0.00 | 0.34 | 0.02 | 94 | 1014.2 |
| 20260507095807 | 47 | 65 | 7.0 | 20.0 | 0.00 | 0.34 | 0.02 | 94 | 1014.2 |
| 20260507095706 | 47 | 19 | 7.0 | 20.0 | 0.00 | 0.34 | 0.02 | 94 | 1014.2 |
| 20260507095607 | 47 | 59 | 7.0 | 20.0 | 0.00 | 0.34 | 0.02 | 94 | 1014.1 |
| 20260507095506 | 47 | 23 | 7.0 | 20.0 | 0.00 | 0.34 | 0.02 | 94 | 1014.2 |
| 20260507095405 | 47 | 61 | 7.0 | 20.0 | 0.00 | 0.35 | 0.02 | 94 | 1014.2 |
| 20260507095306 | 47 | 27 | 7.0 | 20.0 | 0.00 | 0.35 | 0.02 | 94 | 1014.2 |
| 20260507095206 | 47 | 59 | 7.0 | 20.0 | 0.00 | 0.35 | 0.02 | 94 | 1014.2 |
| 20260507095106 | 47 | 57 | 7.0 | 20.0 | 0.00 | 0.36 | 0.02 | 94 | 1014.3 |
| 20260507095005 | 47 | 48 | 7.0 | 20.0 | 0.00 | 0.36 | 0.02 | 94 | 1014.2 |
| 20260507094905 | 47 | 48 | 7.0 | 19.0 | 0.00 | 0.36 | 0.02 | 94 | 1014.2 |
| 20260507094806 | 47 | 81 | 7.0 | 18.0 | 0.00 | 0.37 | 0.02 | 94 | 1014.2 |
| 20260507094706 | 47 | 67 | 7.0 | 18.0 | 0.00 | 0.38 | 0.02 | 94 | 1014.0 |
| 20260507094607 | 47 | 59 | 7.0 | 18.0 | 0.00 | 0.38 | 0.02 | 94 | 1014.1 |
| 20260507094507 | 47 | 26 | 7.0 | 18.0 | 0.00 | 0.38 | 0.02 | 94 | 1014.1 |
| 20260507094407 | 47 | 46 | 7.0 | 18.0 | 0.00 | 0.39 | 0.02 | 94 | 1014.0 |
| 20260507094307 | 47 | 57 | 7.0 | 18.0 | 0.00 | 0.39 | 0.02 | 94 | 1014.0 |
| 20260507094204 | 47 | 51 | 7.0 | 18.0 | 0.00 | 0.39 | 0.02 | 94 | 1014.1 |
| 20260507094104 | 47 | 58 | 7.0 | 18.0 | 0.00 | 0.40 | 0.02 | 94 | 1014.0 |
| 20260507094004 | 47 | 22 | 7.0 | 18.0 | 0.00 | 0.40 | 0.02 | 94 | 1014.1 |
| 20260507093941 | 47 | 87 | 7.0 | 18.0 | 0.00 | 0.40 | 0.02 | 94 | 1014.0 |
| 20260507093929 | 47 | 51 | 7.0 | 18.0 | 0.00 | 0.40 | 0.02 | 94 | 1014.0 |
| 20260507093705 | 47 | 21 | 7.0 | 18.0 | 0.00 | 0.41 | 0.02 | 94 | 1014.1 |
| 20260507093604 | 47 | 39 | 7.0 | 17.0 | 0.00 | 0.41 | 0.02 | 94 | 1014.0 |
| 20260507093538 | 47 | 54 | 7.0 | 17.0 | 0.00 | 0.41 | 0.02 | 94 | 1014.0 |
| 20260507093526 | 47 | 30 | 8.0 | 17.0 | 0.00 | 0.41 | 0.02 | 94 | 1014.0 |
| 20260507093304 | 47 | 19 | 7.0 | 16.0 | 0.00 | 0.41 | 0.02 | 94 | 1014.1 |
| 20260507093238 | 47 | 57 | 7.0 | 18.0 | 0.00 | 0.41 | 0.02 | 94 | 1014.1 |
| 20260507093228 | 47 | 59 | 7.0 | 18.0 | 0.00 | 0.41 | 0.02 | 94 | 1014.1 |
| 20260507093000 | 47 | 47 | 7.0 | 18.0 | 0.00 | 0.41 | 0.02 | 94 | 1014.1 |
| 20260507092859 | 47 | 27 | 7.0 | 18.0 | 0.00 | 0.41 | 0.02 | 94 | 1014.2 |
| 20260507092834 | 47 | 38 | 7.0 | 18.0 | 0.00 | 0.42 | 0.02 | 94 | 1014.2 |
| 20260507092821 | 47 | 45 | 7.0 | 18.0 | 0.00 | 0.41 | 0.02 | 94 | 1014.2 |
| 20260507092558 | 47 | 63 | 7.0 | 20.0 | 0.00 | 0.42 | 0.02 | 94 | 1014.2 |
| 20260507092459 | 47 | 71 | 7.0 | 20.0 | 0.00 | 0.42 | 0.02 | 94 | 1014.2 |
| 20260507092358 | 47 | 76 | 7.0 | 20.0 | 0.00 | 0.42 | 0.02 | 94 | 1014.3 |
| 20260507092259 | 47 | 0 | 7.0 | 20.0 | 0.00 | 0.42 | 0.02 | 94 | 1014.4 |
| 20260507092159 | 47 | 38 | 7.0 | 20.0 | 0.00 | 0.42 | 0.02 | 94 | 1014.4 |
| 20260507092059 | 47 | 61 | 7.0 | 20.0 | 0.00 | 0.42 | 0.02 | 94 | 1014.4 |
| 20260507091959 | 47 | 38 | 7.0 | 20.0 | 0.00 | 0.42 | 0.02 | 94 | 1014.4 |
| 20260507091859 | 47 | 29 | 7.0 | 20.0 | 0.00 | 0.42 | 0.02 | 94 | 1014.4 |
| 20260507091759 | 47 | 40 | 7.0 | 20.0 | 0.00 | 0.42 | 0.02 | 94 | 1014.4 |
| 20260507091657 | 47 | 32 | 7.0 | 20.0 | 0.00 | 0.42 | 0.02 | 94 | 1014.3 |
| 20260507091637 | 47 | 22 | 8.0 | 18.0 | 0.00 | 0.42 | 0.02 | 94 | 1014.2 |
| 20260507091623 | 47 | 51 | 8.0 | 18.0 | 0.00 | 0.42 | 0.02 | 94 | 1014.2 |
| 20260507091428 | 47 | 51 | 8.0 | 18.0 | 0.00 | 0.43 | 0.02 | 94 | 1014.2 |
| 20260507091417 | 47 | 57 | 8.0 | 18.0 | 0.00 | 0.42 | 0.02 | 94 | 1014.2 |
| 20260507091225 | 47 | 29 | 8.0 | 18.0 | 0.00 | 0.44 | 0.02 | 94 | 1014.2 |
| 20260507091215 | 47 | 54 | 8.0 | 18.0 | 0.00 | 0.44 | 0.02 | 94 | 1014.2 |
| 20260507090954 | 47 | 36 | 8.0 | 18.0 | 0.00 | 0.44 | 0.02 | 94 | 1014.3 |
| 20260507090854 | 47 | 46 | 8.0 | 18.0 | 0.00 | 0.44 | 0.02 | 94 | 1014.3 |
| 20260507090753 | 47 | 40 | 8.0 | 18.0 | 0.00 | 0.45 | 0.02 | 94 | 1014.3 |
| 20260507090655 | 48 | 63 | 8.0 | 18.0 | 0.00 | 0.45 | 0.02 | 94 | 1014.3 |
| 20260507090553 | 48 | 38 | 8.0 | 17.0 | 0.00 | 0.45 | 0.02 | 94 | 1014.3 |
| 20260507090529 | 48 | 44 | 8.0 | 17.0 | 0.00 | 0.45 | 0.02 | 94 | 1014.3 |
| 20260507090518 | 48 | 38 | 8.0 | 17.0 | 0.00 | 0.45 | 0.02 | 94 | 1014.3 |
| 20260507090254 | 48 | 43 | 8.0 | 16.0 | 0.00 | 0.45 | 0.02 | 94 | 1014.3 |
| 20260507090158 | 48 | 59 | 8.0 | 16.0 | 0.00 | 0.45 | 0.02 | 94 | 1014.3 |
| 20260507090054 | 48 | 48 | 8.0 | 16.0 | 0.00 | 0.46 | 0.02 | 94 | 1014.4 |
| 20260507085955 | 48 | 72 | 7.0 | 16.0 | 0.00 | 0.46 | 0.02 | 94 | 1014.4 |
| 20260507085854 | 48 | 31 | 7.0 | 17.0 | 0.00 | 0.46 | 0.02 | 94 | 1014.4 |
| 20260507085754 | 48 | 11 | 7.0 | 17.0 | 0.00 | 0.46 | 0.02 | 94 | 1014.3 |
| 20260507085655 | 48 | 63 | 7.0 | 17.0 | 0.00 | 0.46 | 0.02 | 94 | 1014.3 |
| 20260507085555 | 48 | 22 | 7.0 | 17.0 | 0.00 | 0.46 | 0.02 | 94 | 1014.3 |
| 20260507085455 | 48 | 49 | 7.0 | 17.0 | 0.00 | 0.46 | 0.02 | 94 | 1014.2 |
| 20260507085352 | 48 | 37 | 7.0 | 17.0 | 0.00 | 0.46 | 0.02 | 94 | 1014.2 |
| 20260507085252 | 48 | 0 | 7.0 | 17.0 | 0.00 | 0.46 | 0.02 | 94 | 1014.1 |
| 20260507085151 | 48 | 0 | 7.0 | 17.0 | 0.00 | 0.46 | 0.02 | 94 | 1014.1 |
| 20260507085049 | 48 | 52 | 7.0 | 17.0 | 0.00 | 0.46 | 0.02 | 94 | 1014.1 |
| 20260507084952 | 48 | 46 | 7.0 | 17.0 | 0.00 | 0.46 | 0.02 | 94 | 1014.0 |
| 20260507084851 | 48 | 59 | 7.0 | 17.0 | 0.00 | 0.46 | 0.02 | 94 | 1014.1 |
| 20260507084749 | 48 | 50 | 7.0 | 17.0 | 0.00 | 0.46 | 0.02 | 94 | 1014.0 |
| 20260507084650 | 48 | 69 | 7.0 | 17.0 | 0.00 | 0.46 | 0.02 | 94 | 1014.0 |
| 20260507084551 | 48 | 5 | 7.0 | 17.0 | 0.00 | 0.46 | 0.02 | 94 | 1014.0 |
| 20260507084450 | 48 | 59 | 7.0 | 18.0 | 0.00 | 0.46 | 0.02 | 94 | 1014.0 |
| 20260507084419 | 48 | 40 | 7.0 | 18.0 | 0.00 | 0.46 | 0.02 | 94 | 1014.0 |
| 20260507084407 | 48 | 51 | 7.0 | 18.0 | 0.00 | 0.46 | 0.02 | 94 | 1013.9 |
| 20260507084219 | 48 | 53 | 7.0 | 18.0 | 0.00 | 0.46 | 0.02 | 94 | 1014.0 |
| 20260507084208 | 48 | 24 | 7.0 | 18.0 | 0.00 | 0.46 | 0.02 | 94 | 1014.0 |
| 20260507083945 | 48 | 337 | 7.0 | 18.0 | 0.00 | 0.46 | 0.02 | 94 | 1014.1 |
| 20260507083841 | 48 | 41 | 7.0 | 18.0 | 0.00 | 0.46 | 0.02 | 94 | 1014.1 |
| 20260507083740 | 48 | 35 | 7.0 | 18.0 | 0.00 | 0.46 | 0.02 | 94 | 1014.1 |
| 20260507083639 | 48 | 70 | 7.0 | 18.0 | 0.00 | 0.46 | 0.02 | 94 | 1014.1 |
| 20260507083540 | 48 | 13 | 7.0 | 18.0 | 0.00 | 0.46 | 0.02 | 94 | 1014.0 |
| 20260507083439 | 48 | 47 | 7.0 | 16.0 | 0.00 | 0.46 | 0.02 | 94 | 1014.1 |
| 20260507083340 | 48 | 5 | 7.0 | 16.0 | 0.00 | 0.46 | 0.02 | 94 | 1014.1 |
| 20260507083240 | 48 | 88 | 7.0 | 16.0 | 0.00 | 0.46 | 0.02 | 94 | 1014.1 |
| 20260507083139 | 48 | 51 | 7.0 | 16.0 | 0.00 | 0.46 | 0.02 | 94 | 1014.2 |
| 20260507083041 | 48 | 38 | 7.0 | 16.0 | 0.00 | 0.46 | 0.02 | 94 | 1014.1 |
| 20260507082941 | 48 | 51 | 6.0 | 16.0 | 0.00 | 0.46 | 0.02 | 94 | 1014.1 |
| 20260507082839 | 48 | 57 | 7.0 | 13.0 | 0.00 | 0.46 | 0.02 | 94 | 1014.1 |
| 20260507082741 | 48 | 52 | 7.0 | 13.0 | 0.01 | 0.46 | 0.02 | 94 | 1014.2 |
| 20260507082637 | 48 | 41 | 7.0 | 13.0 | 0.01 | 0.46 | 0.02 | 94 | 1014.2 |
| 20260507082535 | 48 | 38 | 7.0 | 13.0 | 0.01 | 0.46 | 0.02 | 94 | 1014.3 |
| 20260507082511 | 48 | 28 | 6.0 | 14.0 | 0.01 | 0.46 | 0.02 | 94 | 1014.3 |
| 20260507082459 | 48 | 30 | 6.0 | 14.0 | 0.01 | 0.46 | 0.02 | 94 | 1014.3 |
| 20260507082235 | 48 | 59 | 6.0 | 14.0 | 0.01 | 0.46 | 0.02 | 94 | 1014.3 |
| 20260507082204 | 48 | 49 | 6.0 | 15.0 | 0.01 | 0.46 | 0.02 | 94 | 1014.4 |
| 20260507082152 | 48 | 32 | 6.0 | 15.0 | 0.01 | 0.46 | 0.02 | 94 | 1014.4 |
| 20260507081929 | 48 | 32 | 6.0 | 15.0 | 0.01 | 0.46 | 0.02 | 94 | 1014.4 |
| 20260507081829 | 48 | 49 | 6.0 | 15.0 | 0.01 | 0.46 | 0.02 | 94 | 1014.5 |
| 20260507081729 | 48 | 39 | 6.0 | 15.0 | 0.01 | 0.46 | 0.02 | 94 | 1014.5 |
| 20260507081623 | 48 | 42 | 6.0 | 15.0 | 0.01 | 0.46 | 0.02 | 94 | 1014.5 |
| 20260507081540 | 48 | 44 | 6.0 | 13.0 | 0.01 | 0.46 | 0.02 | 94 | 1014.7 |
| 20260507081536 | 48 | 49 | 6.0 | 15.0 | 0.01 | 0.46 | 0.02 | 94 | 1014.6 |
| 20260507081532 | 48 | 28 | 6.0 | 15.0 | 0.01 | 0.46 | 0.02 | 94 | 1014.6 |
| 20260507081521 | 48 | 39 | 6.0 | 15.0 | 0.01 | 0.46 | 0.02 | 94 | 1014.8 |
| 20260507081502 | 48 | 34 | 6.0 | 15.0 | 0.01 | 0.46 | 0.02 | 94 | 1014.6 |
| 20260507081445 | 48 | 72 | 6.0 | 15.0 | 0.01 | 0.46 | 0.02 | 94 | 1014.6 |
| 20260507081152 | 48 | 60 | 6.0 | 13.0 | 0.01 | 0.46 | 0.02 | 94 | 1014.6 |
| 20260507081026 | 48 | 63 | 6.0 | 13.0 | 0.01 | 0.46 | 0.02 | 94 | 1014.6 |
| 20260507081002 | 48 | 24 | 6.0 | 13.0 | 0.01 | 0.46 | 0.02 | 94 | 1014.7 |
| 20260507080621 | 48 | 66 | 6.0 | 15.0 | 0.01 | 0.46 | 0.02 | 94 | 1014.6 |
| 20260507080522 | 48 | 20 | 6.0 | 16.0 | 0.01 | 0.46 | 0.02 | 94 | 1014.6 |
| 20260507080422 | 48 | 63 | 6.0 | 16.0 | 0.01 | 0.46 | 0.02 | 94 | 1014.6 |
| 20260507080321 | 48 | 69 | 6.0 | 16.0 | 0.01 | 0.46 | 0.02 | 94 | 1014.6 |
| 20260507080221 | 48 | 59 | 6.0 | 16.0 | 0.01 | 0.46 | 0.02 | 94 | 1014.6 |
| 20260507080121 | 48 | 43 | 6.0 | 16.0 | 0.01 | 0.46 | 0.02 | 94 | 1014.6 |
| 20260507080023 | 48 | 42 | 6.0 | 16.0 | 0.01 | 0.46 | 0.02 | 94 | 1014.6 |
| 20260507075909 | 48 | 28 | 6.0 | 16.0 | 0.01 | 0.46 | 0.02 | 94 | 1014.6 |
| 20260507075809 | 48 | 15 | 6.0 | 16.0 | 0.01 | 0.46 | 0.02 | 94 | 1014.6 |
| 20260507075708 | 48 | 65 | 6.0 | 16.0 | 0.01 | 0.46 | 0.02 | 94 | 1014.5 |
| 20260507075609 | 48 | 46 | 6.0 | 16.0 | 0.01 | 0.46 | 0.02 | 94 | 1014.5 |
| 20260507075509 | 48 | 269 | 6.0 | 15.0 | 0.01 | 0.46 | 0.02 | 94 | 1014.5 |
| 20260507075404 | 48 | 50 | 6.0 | 15.0 | 0.01 | 0.46 | 0.02 | 94 | 1014.6 |
| 20260507075306 | 48 | 40 | 6.0 | 14.0 | 0.01 | 0.46 | 0.02 | 94 | 1014.6 |
| 20260507075203 | 48 | 38 | 6.0 | 14.0 | 0.01 | 0.46 | 0.02 | 94 | 1014.6 |
| 20260507075138 | 48 | 53 | 6.0 | 14.0 | 0.01 | 0.46 | 0.02 | 94 | 1014.4 |
| 20260507075127 | 48 | 35 | 6.0 | 14.0 | 0.01 | 0.46 | 0.02 | 94 | 1014.6 |
| 20260507074904 | 48 | 13 | 6.0 | 14.0 | 0.01 | 0.46 | 0.02 | 94 | 1014.4 |
| 20260507074805 | 48 | 36 | 6.0 | 14.0 | 0.01 | 0.46 | 0.02 | 94 | 1014.4 |
| 20260507074704 | 48 | 36 | 5.0 | 14.0 | 0.01 | 0.46 | 0.02 | 94 | 1014.4 |
| 20260507074604 | 48 | 46 | 6.0 | 14.0 | 0.01 | 0.46 | 0.02 | 94 | 1014.4 |
| 20260507074541 | 48 | 49 | 6.0 | 15.0 | 0.01 | 0.46 | 0.02 | 94 | 1014.3 |
| 20260507074528 | 48 | 34 | 5.0 | 12.0 | 0.01 | 0.46 | 0.02 | 94 | 1014.3 |
| 20260507074303 | 48 | 42 | 6.0 | 15.0 | 0.01 | 0.46 | 0.02 | 94 | 1014.4 |
| 20260507074203 | 48 | 66 | 6.0 | 15.0 | 0.01 | 0.46 | 0.02 | 94 | 1014.4 |
| 20260507074105 | 48 | 44 | 6.0 | 15.0 | 0.01 | 0.46 | 0.02 | 94 | 1014.4 |
| 20260507074003 | 49 | 57 | 6.0 | 15.0 | 0.01 | 0.46 | 0.02 | 94 | 1014.3 |
| 20260507073904 | 48 | 38 | 6.0 | 15.0 | 0.01 | 0.46 | 0.02 | 94 | 1014.3 |
| 20260507073804 | 49 | 39 | 6.0 | 15.0 | 0.01 | 0.46 | 0.02 | 94 | 1014.2 |
| 20260507073703 | 49 | 25 | 6.0 | 15.0 | 0.01 | 0.46 | 0.02 | 94 | 1014.3 |
| 20260507073630 | 48 | 55 | 6.0 | 15.0 | 0.01 | 0.46 | 0.02 | 94 | 1014.2 |
| 20260507073621 | 49 | 67 | 6.0 | 15.0 | 0.01 | 0.46 | 0.02 | 94 | 1014.3 |
| 20260507073359 | 49 | 78 | 5.0 | 13.0 | 0.01 | 0.46 | 0.02 | 94 | 1014.2 |
| 20260507073334 | 49 | 44 | 5.0 | 12.0 | 0.01 | 0.46 | 0.02 | 94 | 1014.1 |
| 20260507073323 | 48 | 40 | 5.0 | 12.0 | 0.01 | 0.46 | 0.02 | 94 | 1014.1 |
| 20260507073100 | 49 | 22 | 5.0 | 12.0 | 0.01 | 0.46 | 0.02 | 94 | 1014.0 |
| 20260507073000 | 48 | 47 | 5.0 | 15.0 | 0.01 | 0.46 | 0.02 | 94 | 1014.1 |
| 20260507072901 | 48 | 41 | 6.0 | 15.0 | 0.01 | 0.46 | 0.02 | 94 | 1014.1 |
| 20260507072756 | 48 | 53 | 6.0 | 15.0 | 0.00 | 0.45 | 0.01 | 94 | 1014.0 |
| 20260507072730 | 48 | 38 | 6.0 | 15.0 | 0.00 | 0.45 | 0.01 | 94 | 1014.2 |
| 20260507072720 | 48 | 47 | 6.0 | 15.0 | 0.00 | 0.45 | 0.01 | 94 | 1014.1 |
| 20260507072457 | 49 | 55 | 6.0 | 15.0 | 0.00 | 0.45 | 0.01 | 94 | 1014.2 |
| 20260507072419 | 49 | 76 | 6.0 | 15.0 | 0.00 | 0.45 | 0.01 | 94 | 1014.3 |
| 20260507072414 | 49 | 61 | 6.0 | 13.0 | 0.00 | 0.45 | 0.01 | 94 | 1014.4 |
| 20260507072401 | 49 | 14 | 6.0 | 15.0 | 0.00 | 0.45 | 0.01 | 94 | 1014.2 |
| 20260507072338 | 49 | 36 | 6.0 | 15.0 | 0.00 | 0.45 | 0.01 | 94 | 1014.2 |
| 20260507072027 | 48 | 57 | 6.0 | 13.0 | 0.00 | 0.45 | 0.01 | 94 | 1014.3 |
| 20260507072018 | 48 | 53 | 6.0 | 13.0 | 0.00 | 0.45 | 0.01 | 94 | 1014.4 |
| 20260507071757 | 48 | 53 | 6.0 | 13.0 | 0.00 | 0.45 | 0.01 | 94 | 1014.3 |
| 20260507071655 | 48 | 30 | 6.0 | 13.0 | 0.00 | 0.45 | 0.01 | 94 | 1014.3 |
| 20260507071557 | 48 | 46 | 6.0 | 13.0 | 0.00 | 0.45 | 0.01 | 94 | 1014.3 |
| 20260507071456 | 48 | 25 | 6.0 | 13.0 | 0.00 | 0.45 | 0.01 | 94 | 1014.2 |
| 20260507071356 | 48 | 48 | 6.0 | 13.0 | 0.00 | 0.45 | 0.01 | 94 | 1014.2 |
| 20260507071255 | 48 | 48 | 6.0 | 13.0 | 0.00 | 0.45 | 0.01 | 94 | 1014.2 |
| 20260507071156 | 48 | 59 | 6.0 | 13.0 | 0.00 | 0.45 | 0.01 | 94 | 1014.2 |
| 20260507071055 | 49 | 52 | 5.0 | 13.0 | 0.00 | 0.45 | 0.01 | 94 | 1014.2 |
| 20260507070955 | 49 | 63 | 5.0 | 13.0 | 0.00 | 0.45 | 0.01 | 94 | 1014.3 |
| 20260507070856 | 49 | 29 | 5.0 | 13.0 | 0.00 | 0.45 | 0.01 | 94 | 1014.3 |
| 20260507070757 | 49 | 15 | 5.0 | 13.0 | 0.00 | 0.45 | 0.01 | 94 | 1014.5 |
| 20260507070656 | 49 | 24 | 5.0 | 13.0 | 0.00 | 0.45 | 0.01 | 94 | 1014.6 |
| 20260507070556 | 49 | 5 | 5.0 | 12.0 | 0.00 | 0.45 | 0.01 | 94 | 1014.6 |
| 20260507070455 | 49 | 44 | 5.0 | 12.0 | 0.00 | 0.45 | 0.01 | 94 | 1014.7 |
| 20260507070431 | 49 | 31 | 5.0 | 12.0 | 0.00 | 0.45 | 0.01 | 94 | 1015.0 |
| 20260507070419 | 49 | 74 | 5.0 | 12.0 | 0.00 | 0.45 | 0.01 | 94 | 1014.8 |
| 20260507070152 | 49 | 47 | 5.0 | 12.0 | 0.00 | 0.45 | 0.01 | 94 | 1015.1 |
| 20260507070051 | 49 | 46 | 5.0 | 12.0 | 0.00 | 0.45 | 0.01 | 94 | 1015.2 |
| 20260507065952 | 49 | 30 | 5.0 | 12.0 | 0.00 | 0.45 | 0.01 | 94 | 1015.2 |
| 20260507065851 | 49 | 32 | 5.0 | 12.0 | 0.00 | 0.45 | 0.01 | 94 | 1015.2 |
| 20260507065752 | 49 | 25 | 5.0 | 11.0 | 0.00 | 0.45 | 0.01 | 94 | 1015.2 |
| 20260507065652 | 49 | 57 | 5.0 | 11.0 | 0.00 | 0.45 | 0.01 | 94 | 1015.1 |
| 20260507065553 | 49 | 34 | 5.0 | 11.0 | 0.00 | 0.45 | 0.01 | 94 | 1015.0 |
| 20260507065447 | 49 | 36 | 5.0 | 11.0 | 0.00 | 0.45 | 0.01 | 94 | 1015.0 |
| 20260507065347 | 49 | 56 | 5.0 | 11.0 | 0.00 | 0.45 | 0.01 | 94 | 1015.0 |
| 20260507065249 | 49 | 47 | 5.0 | 11.0 | 0.00 | 0.45 | 0.01 | 94 | 1015.1 |
| 20260507065147 | 49 | 53 | 5.0 | 11.0 | 0.00 | 0.45 | 0.01 | 94 | 1015.1 |
| 20260507065049 | 49 | 46 | 5.0 | 11.0 | 0.00 | 0.45 | 0.01 | 94 | 1015.2 |
| 20260507064948 | 49 | 26 | 5.0 | 12.0 | 0.00 | 0.45 | 0.01 | 94 | 1015.2 |
| 20260507064847 | 49 | 54 | 5.0 | 12.0 | 0.00 | 0.45 | 0.01 | 94 | 1015.2 |
| 20260507064747 | 49 | 51 | 5.0 | 12.0 | 0.00 | 0.45 | 0.01 | 94 | 1015.1 |
| 20260507064645 | 49 | 38 | 5.0 | 12.0 | 0.00 | 0.45 | 0.01 | 94 | 1015.2 |
| 20260507064546 | 49 | 38 | 5.0 | 12.0 | 0.00 | 0.45 | 0.01 | 94 | 1015.1 |
| 20260507064445 | 49 | 24 | 5.0 | 12.0 | 0.00 | 0.45 | 0.01 | 94 | 1015.1 |
| 20260507064345 | 49 | 38 | 5.0 | 12.0 | 0.00 | 0.45 | 0.01 | 94 | 1015.1 |
| 20260507064237 | 49 | 31 | 5.0 | 12.0 | 0.00 | 0.45 | 0.01 | 94 | 1015.0 |
| 20260507064138 | 49 | 15 | 5.0 | 12.0 | 0.00 | 0.45 | 0.01 | 94 | 1015.0 |
| 20260507064037 | 49 | 38 | 5.0 | 12.0 | 0.00 | 0.45 | 0.01 | 94 | 1015.1 |
| 20260507064012 | 49 | 16 | 5.0 | 14.0 | 0.00 | 0.45 | 0.01 | 94 | 1015.0 |
| 20260507064000 | 49 | 29 | 5.0 | 12.0 | 0.00 | 0.45 | 0.01 | 94 | 1015.0 |
| 20260507063729 | 49 | 61 | 5.0 | 14.0 | 0.00 | 0.45 | 0.01 | 94 | 1015.0 |
| 20260507063704 | 48 | 47 | 5.0 | 14.0 | 0.00 | 0.45 | 0.01 | 94 | 1014.7 |
| 20260507063652 | 49 | 62 | 5.0 | 14.0 | 0.00 | 0.45 | 0.01 | 94 | 1014.7 |
| 20260507063442 | 48 | 32 | 6.0 | 14.0 | 0.00 | 0.45 | 0.01 | 94 | 1014.8 |
| 20260507063430 | 48 | 47 | 5.0 | 14.0 | 0.00 | 0.45 | 0.01 | 94 | 1014.8 |
| 20260507063424 | 48 | 34 | 6.0 | 14.0 | 0.00 | 0.45 | 0.01 | 94 | 1014.7 |
| 20260507063404 | 48 | 55 | 5.0 | 14.0 | 0.00 | 0.45 | 0.01 | 94 | 1014.7 |
| 20260507063024 | 49 | 46 | 6.0 | 14.0 | 0.00 | 0.45 | 0.01 | 94 | 1014.8 |
| 20260507062924 | 49 | 51 | 6.0 | 14.0 | 0.00 | 0.45 | 0.01 | 94 | 1014.8 |
| 20260507062823 | 49 | 55 | 6.0 | 15.0 | 0.00 | 0.45 | 0.01 | 94 | 1014.8 |
| 20260507062711 | 49 | 65 | 6.0 | 15.0 | 0.00 | 0.45 | 0.01 | 94 | 1014.8 |
| 20260507062610 | 49 | 58 | 6.0 | 15.0 | 0.00 | 0.45 | 0.01 | 94 | 1014.8 |
| 20260507062510 | 49 | 25 | 6.0 | 15.0 | 0.00 | 0.45 | 0.01 | 94 | 1014.8 |
| 20260507062411 | 49 | 32 | 6.0 | 15.0 | 0.00 | 0.45 | 0.01 | 94 | 1014.7 |
| 20260507062309 | 49 | 59 | 6.0 | 15.0 | 0.00 | 0.45 | 0.01 | 94 | 1014.6 |
| 20260507062207 | 49 | 34 | 6.0 | 15.0 | 0.00 | 0.45 | 0.01 | 94 | 1014.6 |
| 20260507062103 | 49 | 24 | 6.0 | 15.0 | 0.00 | 0.45 | 0.01 | 94 | 1014.5 |
| 20260507062005 | 49 | 42 | 6.0 | 15.0 | 0.00 | 0.45 | 0.01 | 94 | 1014.3 |
| 20260507061939 | 49 | 40 | 6.0 | 15.0 | 0.00 | 0.45 | 0.01 | 94 | 1014.3 |
| 20260507061928 | 49 | 57 | 6.0 | 15.0 | 0.00 | 0.45 | 0.01 | 94 | 1014.3 |
| 20260507061657 | 49 | 11 | 6.0 | 15.0 | 0.00 | 0.45 | 0.01 | 94 | 1014.4 |
| 20260507061559 | 49 | 59 | 6.0 | 15.0 | 0.00 | 0.45 | 0.01 | 94 | 1014.4 |
| 20260507061459 | 49 | 23 | 7.0 | 15.0 | 0.00 | 0.45 | 0.01 | 94 | 1014.5 |
| 20260507061358 | 49 | 44 | 7.0 | 15.0 | 0.00 | 0.45 | 0.01 | 94 | 1014.5 |
| 20260507061257 | 49 | 355 | 7.0 | 15.0 | 0.00 | 0.45 | 0.01 | 94 | 1014.6 |
| 20260507061148 | 49 | 39 | 7.0 | 15.0 | 0.00 | 0.45 | 0.01 | 94 | 1014.6 |
| 20260507061047 | 49 | 40 | 7.0 | 15.0 | 0.00 | 0.45 | 0.01 | 94 | 1014.6 |
| 20260507060948 | 49 | 30 | 6.0 | 15.0 | 0.00 | 0.45 | 0.01 | 94 | 1014.6 |
| 20260507060847 | 49 | 47 | 7.0 | 15.0 | 0.00 | 0.45 | 0.01 | 94 | 1014.5 |
| 20260507060748 | 49 | 61 | 7.0 | 15.0 | 0.00 | 0.45 | 0.01 | 94 | 1014.7 |
| 20260507060643 | 49 | 24 | 7.0 | 15.0 | 0.00 | 0.45 | 0.01 | 94 | 1014.7 |
| 20260507060543 | 49 | 60 | 6.0 | 15.0 | 0.01 | 0.45 | 0.01 | 94 | 1014.8 |
| 20260507060442 | 49 | 50 | 6.0 | 14.0 | 0.01 | 0.45 | 0.01 | 94 | 1014.8 |
| 20260507060341 | 49 | 39 | 6.0 | 14.0 | 0.01 | 0.45 | 0.01 | 94 | 1014.8 |
| 20260507060243 | 49 | 42 | 6.0 | 14.0 | 0.01 | 0.45 | 0.01 | 94 | 1014.8 |
| 20260507060136 | 49 | 34 | 6.0 | 15.0 | 0.01 | 0.45 | 0.01 | 94 | 1014.8 |
| 20260507060038 | 49 | 338 | 6.0 | 15.0 | 0.01 | 0.45 | 0.01 | 94 | 1014.8 |
| 20260507055937 | 49 | 30 | 6.0 | 15.0 | 0.01 | 0.45 | 0.01 | 94 | 1014.8 |
| 20260507055835 | 49 | 42 | 6.0 | 15.0 | 0.01 | 0.45 | 0.01 | 94 | 1015.0 |
| 20260507055735 | 49 | 62 | 6.0 | 15.0 | 0.01 | 0.45 | 0.01 | 94 | 1014.8 |
| 20260507055621 | 49 | 30 | 6.0 | 15.0 | 0.01 | 0.45 | 0.01 | 94 | 1014.8 |
| 20260507055519 | 49 | 26 | 6.0 | 15.0 | 0.01 | 0.45 | 0.01 | 94 | 1014.7 |
| 20260507055421 | 49 | 65 | 7.0 | 15.0 | 0.01 | 0.45 | 0.01 | 94 | 1014.7 |
| 20260507055319 | 49 | 50 | 7.0 | 15.0 | 0.01 | 0.45 | 0.01 | 94 | 1014.7 |
| 20260507055220 | 49 | 42 | 7.0 | 15.0 | 0.01 | 0.45 | 0.01 | 94 | 1014.6 |
| 20260507055117 | 49 | 62 | 7.0 | 15.0 | 0.01 | 0.45 | 0.01 | 94 | 1014.6 |
| 20260507055050 | 49 | 51 | 7.0 | 15.0 | 0.01 | 0.45 | 0.01 | 94 | 1014.6 |
| 20260507055037 | 49 | 37 | 7.0 | 15.0 | 0.01 | 0.45 | 0.01 | 94 | 1014.5 |
| 20260507054814 | 49 | 33 | 7.0 | 15.0 | 0.01 | 0.45 | 0.01 | 94 | 1014.5 |
| 20260507054712 | 49 | 355 | 7.0 | 15.0 | 0.01 | 0.45 | 0.01 | 94 | 1014.5 |
| 20260507054607 | 49 | 53 | 7.0 | 16.0 | 0.01 | 0.45 | 0.01 | 94 | 1014.5 |
| 20260507054530 | 49 | 26 | 7.0 | 16.0 | 0.01 | 0.45 | 0.01 | 94 | 1014.3 |
| 20260507054525 | 49 | 37 | 7.0 | 16.0 | 0.01 | 0.45 | 0.01 | 94 | 1014.3 |
| 20260507054514 | 49 | 23 | 7.0 | 16.0 | 0.01 | 0.45 | 0.01 | 94 | 1014.4 |
| 20260507054452 | 49 | 28 | 7.0 | 16.0 | 0.01 | 0.45 | 0.01 | 94 | 1014.4 |
| 20260507054055 | 49 | 57 | 7.0 | 16.0 | 0.01 | 0.45 | 0.01 | 94 | 1014.5 |
| 20260507053953 | 49 | 33 | 7.0 | 16.0 | 0.01 | 0.45 | 0.01 | 94 | 1014.5 |
| 20260507053855 | 49 | 50 | 7.0 | 16.0 | 0.01 | 0.45 | 0.01 | 94 | 1014.5 |
| 20260507053829 | 49 | 61 | 7.0 | 16.0 | 0.01 | 0.45 | 0.01 | 94 | 1014.7 |
| 20260507053817 | 49 | 13 | 7.0 | 16.0 | 0.01 | 0.45 | 0.01 | 94 | 1014.6 |
| 20260507053600 | 49 | 43 | 6.0 | 14.0 | 0.01 | 0.45 | 0.01 | 94 | 1014.7 |
| 20260507053550 | 49 | 53 | 6.0 | 14.0 | 0.01 | 0.45 | 0.01 | 94 | 1014.7 |
| 20260507053543 | 49 | 5 | 6.0 | 14.0 | 0.01 | 0.45 | 0.01 | 94 | 1014.7 |
| 20260507053537 | 49 | 69 | 6.0 | 14.0 | 0.01 | 0.45 | 0.01 | 94 | 1014.8 |
| 20260507053520 | 49 | 37 | 6.0 | 14.0 | 0.01 | 0.45 | 0.01 | 94 | 1014.7 |
| 20260507053332 | 49 | 41 | 6.0 | 13.0 | 0.01 | 0.45 | 0.01 | 94 | 1014.7 |
| 20260507052949 | 49 | 54 | 6.0 | 14.0 | 0.01 | 0.45 | 0.01 | 94 | 1015.0 |
| 20260507052849 | 49 | 28 | 6.0 | 14.0 | 0.01 | 0.45 | 0.01 | 94 | 1015.0 |
| 20260507052751 | 49 | 62 | 6.0 | 14.0 | 0.01 | 0.45 | 0.01 | 94 | 1015.0 |
| 20260507052649 | 49 | 53 | 6.0 | 14.0 | 0.01 | 0.45 | 0.01 | 94 | 1014.8 |
| 20260507052548 | 49 | 63 | 6.0 | 14.0 | 0.01 | 0.45 | 0.01 | 94 | 1014.8 |
| 20260507052449 | 49 | 46 | 6.0 | 14.0 | 0.01 | 0.45 | 0.01 | 94 | 1014.8 |
| 20260507052348 | 49 | 40 | 6.0 | 14.0 | 0.01 | 0.45 | 0.01 | 94 | 1014.8 |
| 20260507052247 | 49 | 51 | 5.0 | 14.0 | 0.01 | 0.45 | 0.01 | 94 | 1014.8 |
| 20260507052147 | 49 | 66 | 6.0 | 14.0 | 0.01 | 0.45 | 0.01 | 94 | 1014.8 |
| 20260507052049 | 49 | 59 | 5.0 | 13.0 | 0.01 | 0.45 | 0.01 | 94 | 1014.8 |
| 20260507051947 | 49 | 26 | 5.0 | 13.0 | 0.01 | 0.45 | 0.01 | 94 | 1015.0 |
| 20260507051847 | 49 | 51 | 5.0 | 13.0 | 0.01 | 0.45 | 0.01 | 94 | 1015.2 |
| 20260507051749 | 49 | 38 | 5.0 | 13.0 | 0.01 | 0.45 | 0.01 | 94 | 1015.3 |
| 20260507051649 | 49 | 72 | 5.0 | 13.0 | 0.01 | 0.45 | 0.01 | 94 | 1015.4 |
| 20260507051621 | 49 | 46 | 6.0 | 14.0 | 0.01 | 0.45 | 0.01 | 94 | 1015.6 |
| 20260507051610 | 49 | 44 | 6.0 | 14.0 | 0.01 | 0.45 | 0.01 | 94 | 1015.5 |
| 20260507051346 | 49 | 48 | 6.0 | 14.0 | 0.01 | 0.45 | 0.01 | 94 | 1015.6 |
| 20260507051246 | 49 | 49 | 6.0 | 14.0 | 0.01 | 0.45 | 0.01 | 94 | 1015.7 |
| 20260507051148 | 49 | 22 | 6.0 | 14.0 | 0.01 | 0.45 | 0.01 | 94 | 1015.6 |
| 20260507051103 | 49 | 45 | 6.0 | 14.0 | 0.01 | 0.45 | 0.01 | 94 | 1015.6 |
| 20260507051051 | 49 | 54 | 6.0 | 14.0 | 0.01 | 0.45 | 0.01 | 94 | 1015.6 |
| 20260507051044 | 49 | 34 | 6.0 | 14.0 | 0.01 | 0.45 | 0.01 | 94 | 1015.6 |
| 20260507051024 | 49 | 94 | 6.0 | 14.0 | 0.01 | 0.45 | 0.01 | 94 | 1015.6 |
| 20260507050643 | 49 | 42 | 6.0 | 14.0 | 0.01 | 0.45 | 0.01 | 94 | 1015.6 |
| 20260507050543 | 49 | 50 | 5.0 | 12.0 | 0.00 | 0.44 | 0.01 | 94 | 1015.5 |
| 20260507050441 | 49 | 37 | 5.0 | 12.0 | 0.00 | 0.44 | 0.00 | 94 | 1015.4 |
| 20260507050341 | 49 | 59 | 5.0 | 14.0 | 0.00 | 0.44 | 0.00 | 94 | 1015.4 |
| 20260507050241 | 49 | 44 | 5.0 | 14.0 | 0.00 | 0.44 | 0.00 | 94 | 1015.4 |
| 20260507050137 | 49 | 46 | 5.0 | 14.0 | 0.00 | 0.44 | 0.00 | 94 | 1015.4 |
| 20260507050107 | 49 | 60 | 5.0 | 14.0 | 0.00 | 0.44 | 0.44 | 94 | 1015.4 |
| 20260507050057 | 49 | 38 | 5.0 | 14.0 | 0.00 | 0.44 | 0.00 | 94 | 1015.4 |
| 20260507045835 | 49 | 65 | 5.0 | 14.0 | 0.00 | 0.44 | 0.44 | 94 | 1015.6 |
| 20260507045735 | 49 | 38 | 5.0 | 14.0 | 0.00 | 0.44 | 0.44 | 94 | 1015.5 |
| 20260507045627 | 49 | 44 | 5.0 | 14.0 | 0.00 | 0.44 | 0.44 | 94 | 1015.7 |
| 20260507045557 | 49 | 31 | 5.0 | 14.0 | 0.00 | 0.44 | 0.44 | 94 | 1015.9 |
| 20260507045543 | 49 | 34 | 5.0 | 14.0 | 0.00 | 0.44 | 0.44 | 94 | 1015.9 |
| 20260507045324 | 49 | 44 | 5.0 | 11.0 | 0.00 | 0.44 | 0.44 | 94 | 1015.8 |
| 20260507045258 | 49 | 15 | 5.0 | 11.0 | 0.00 | 0.44 | 0.44 | 94 | 1015.9 |
| 20260507045246 | 49 | 50 | 5.0 | 11.0 | 0.00 | 0.44 | 0.44 | 94 | 1015.9 |
| 20260507045024 | 49 | 15 | 5.0 | 11.0 | 0.00 | 0.44 | 0.44 | 94 | 1015.9 |
| 20260507045003 | 50 | 39 | 6.0 | 13.0 | 0.00 | 0.44 | 0.44 | 94 | 1015.8 |
| 20260507044957 | 50 | 19 | 6.0 | 13.0 | 0.00 | 0.44 | 0.44 | 94 | 1015.9 |
| 20260507044952 | 50 | 57 | 6.0 | 13.0 | 0.00 | 0.44 | 0.44 | 94 | 1015.8 |
| 20260507044946 | 49 | 331 | 5.0 | 11.0 | 0.00 | 0.44 | 0.44 | 94 | 1015.9 |
| 20260507044941 | 49 | 53 | 5.0 | 11.0 | 0.00 | 0.44 | 0.44 | 94 | 1015.7 |
| 20260507044928 | 49 | 53 | 5.0 | 11.0 | 0.00 | 0.44 | 0.44 | 94 | 1016.0 |
| 20260507044906 | 49 | 10 | 5.0 | 11.0 | 0.00 | 0.44 | 0.44 | 94 | 1016.0 |
| 20260507044739 | 49 | 55 | 5.0 | 11.0 | 0.00 | 0.44 | 0.44 | 94 | 1015.9 |
| 20260507044722 | 49 | 25 | 5.0 | 11.0 | 0.00 | 0.44 | 0.44 | 94 | 1015.9 |
| 20260507044422 | 50 | 5 | 5.0 | 11.0 | 0.00 | 0.44 | 0.44 | 94 | 1015.7 |
| 20260507044255 | 50 | 38 | 5.0 | 13.0 | 0.00 | 0.44 | 0.44 | 94 | 1015.8 |
| 20260507044137 | 50 | 40 | 6.0 | 13.0 | 0.00 | 0.44 | 0.44 | 94 | 1015.6 |
| 20260507044127 | 50 | 38 | 5.0 | 13.0 | 0.00 | 0.44 | 0.44 | 94 | 1015.8 |
| 20260507044104 | 50 | 65 | 5.0 | 13.0 | 0.00 | 0.44 | 0.44 | 94 | 1015.8 |
| 20260507043802 | 50 | 62 | 6.0 | 13.0 | 0.00 | 0.44 | 0.44 | 94 | 1015.8 |
| 20260507043420 | 50 | 50 | 6.0 | 13.0 | 0.00 | 0.44 | 0.44 | 94 | 1015.7 |
| 20260507043318 | 50 | 47 | 6.0 | 13.0 | 0.00 | 0.44 | 0.44 | 94 | 1015.6 |
| 20260507043218 | 50 | 30 | 6.0 | 13.0 | 0.00 | 0.44 | 0.44 | 94 | 1015.6 |
| 20260507043118 | 50 | 30 | 5.0 | 13.0 | 0.00 | 0.44 | 0.44 | 94 | 1015.6 |
| 20260507043018 | 50 | 82 | 5.0 | 13.0 | 0.00 | 0.44 | 0.44 | 94 | 1015.7 |
| 20260507042917 | 50 | 48 | 5.0 | 13.0 | 0.00 | 0.44 | 0.44 | 94 | 1015.7 |
| 20260507042819 | 50 | 46 | 6.0 | 15.0 | 0.00 | 0.44 | 0.44 | 94 | 1015.8 |
| 20260507042748 | 50 | 43 | 5.0 | 15.0 | 0.00 | 0.44 | 0.44 | 94 | 1015.8 |
| 20260507042738 | 50 | 19 | 6.0 | 15.0 | 0.00 | 0.44 | 0.44 | 94 | 1015.8 |
| 20260507042519 | 50 | 42 | 5.0 | 15.0 | 0.00 | 0.44 | 0.44 | 94 | 1015.8 |
| 20260507042452 | 50 | 47 | 6.0 | 15.0 | 0.00 | 0.44 | 0.44 | 94 | 1015.8 |
| 20260507042441 | 50 | 34 | 5.0 | 15.0 | 0.00 | 0.44 | 0.44 | 94 | 1015.9 |
| 20260507042218 | 50 | 53 | 5.0 | 15.0 | 0.00 | 0.44 | 0.44 | 94 | 1015.8 |
| 20260507042155 | 50 | 37 | 6.0 | 15.0 | 0.00 | 0.44 | 0.44 | 94 | 1015.6 |
| 20260507042142 | 50 | 64 | 5.0 | 15.0 | 0.00 | 0.44 | 0.44 | 94 | 1015.7 |
| 20260507041918 | 50 | 33 | 5.0 | 15.0 | 0.00 | 0.44 | 0.44 | 94 | 1015.6 |
| 20260507041818 | 50 | 41 | 5.0 | 13.0 | 0.00 | 0.44 | 0.44 | 94 | 1015.6 |
| 20260507041718 | 50 | 24 | 5.0 | 13.0 | 0.00 | 0.44 | 0.44 | 94 | 1015.5 |
| 20260507041618 | 50 | 44 | 5.0 | 13.0 | 0.00 | 0.44 | 0.44 | 94 | 1015.4 |
| 20260507041519 | 50 | 38 | 5.0 | 13.0 | 0.00 | 0.44 | 0.44 | 94 | 1015.4 |
| 20260507041418 | 50 | 19 | 5.0 | 13.0 | 0.00 | 0.44 | 0.44 | 94 | 1015.4 |
| 20260507041317 | 50 | 24 | 5.0 | 12.0 | 0.00 | 0.44 | 0.44 | 94 | 1015.5 |
| 20260507041219 | 50 | 51 | 5.0 | 12.0 | 0.00 | 0.44 | 0.44 | 94 | 1015.4 |
| 20260507041145 | 50 | 59 | 5.0 | 12.0 | 0.00 | 0.44 | 0.44 | 94 | 1015.5 |
| 20260507041135 | 50 | 36 | 5.0 | 12.0 | 0.00 | 0.44 | 0.44 | 94 | 1015.4 |
| 20260507040943 | 50 | 34 | 5.0 | 14.0 | 0.00 | 0.44 | 0.44 | 94 | 1015.7 |
| 20260507040934 | 50 | 5 | 5.0 | 12.0 | 0.00 | 0.44 | 0.44 | 94 | 1015.6 |
| 20260507040711 | 50 | 76 | 5.0 | 14.0 | 0.00 | 0.44 | 0.44 | 94 | 1015.7 |
| 20260507040611 | 50 | 56 | 5.0 | 14.0 | 0.00 | 0.44 | 0.44 | 94 | 1015.7 |
| 20260507040504 | 50 | 56 | 5.0 | 14.0 | 0.00 | 0.44 | 0.44 | 94 | 1015.7 |
| 20260507040405 | 50 | 5 | 5.0 | 14.0 | 0.00 | 0.44 | 0.44 | 94 | 1015.7 |
| 20260507040305 | 50 | 49 | 5.0 | 14.0 | 0.00 | 0.44 | 0.44 | 94 | 1015.6 |
| 20260507040241 | 50 | 35 | 6.0 | 14.0 | 0.00 | 0.44 | 0.44 | 94 | 1015.6 |
| 20260507040227 | 50 | 42 | 5.0 | 14.0 | 0.00 | 0.44 | 0.44 | 94 | 1015.7 |
| 20260507035959 | 50 | 44 | 5.0 | 14.0 | 0.00 | 0.44 | 0.44 | 94 | 1015.6 |
| 20260507035858 | 50 | 46 | 5.0 | 13.0 | 0.00 | 0.44 | 0.44 | 94 | 1015.6 |
| 20260507035834 | 50 | 32 | 6.0 | 13.0 | 0.00 | 0.44 | 0.44 | 94 | 1015.4 |
| 20260507035822 | 50 | 26 | 6.0 | 13.0 | 0.00 | 0.44 | 0.44 | 94 | 1015.6 |
| 20260507035558 | 50 | 42 | 6.0 | 13.0 | 0.00 | 0.44 | 0.44 | 94 | 1015.3 |
| 20260507035445 | 50 | 42 | 6.0 | 13.0 | 0.00 | 0.44 | 0.44 | 94 | 1015.2 |
| 20260507035417 | 50 | 24 | 5.0 | 13.0 | 0.00 | 0.44 | 0.44 | 94 | 1015.2 |
| 20260507035407 | 50 | 51 | 6.0 | 13.0 | 0.00 | 0.44 | 0.44 | 94 | 1015.2 |
| 20260507035145 | 50 | 26 | 5.0 | 13.0 | 0.00 | 0.44 | 0.44 | 94 | 1015.2 |
| 20260507035045 | 50 | 59 | 5.0 | 13.0 | 0.00 | 0.44 | 0.44 | 94 | 1015.3 |
| 20260507034940 | 50 | 61 | 5.0 | 13.0 | 0.00 | 0.44 | 0.44 | 94 | 1015.2 |
| 20260507034858 | 50 | 44 | 4.0 | 11.0 | 0.00 | 0.44 | 0.44 | 94 | 1015.1 |
| 20260507034853 | 50 | 58 | 4.0 | 11.0 | 0.00 | 0.44 | 0.44 | 94 | 1015.1 |
| 20260507034841 | 50 | 0 | 5.0 | 13.0 | 0.00 | 0.44 | 0.44 | 94 | 1015.2 |
| 20260507034819 | 50 | 22 | 4.0 | 12.0 | 0.00 | 0.44 | 0.44 | 94 | 1015.2 |
| 20260507034433 | 50 | 30 | 4.0 | 11.0 | 0.00 | 0.44 | 0.44 | 94 | 1015.1 |
| 20260507034331 | 50 | 33 | 4.0 | 11.0 | 0.00 | 0.44 | 0.44 | 94 | 1015.1 |
| 20260507034232 | 50 | 38 | 4.0 | 11.0 | 0.00 | 0.44 | 0.44 | 94 | 1015.1 |
| 20260507034134 | 50 | 0 | 4.0 | 11.0 | 0.00 | 0.44 | 0.44 | 94 | 1015.0 |
| 20260507034033 | 50 | 55 | 5.0 | 11.0 | 0.00 | 0.44 | 0.44 | 94 | 1015.0 |
| 20260507033959 | 50 | 57 | 5.0 | 11.0 | 0.00 | 0.44 | 0.44 | 94 | 1015.0 |
| 20260507033944 | 50 | 34 | 5.0 | 11.0 | 0.00 | 0.44 | 0.44 | 94 | 1015.0 |
| 20260507033722 | 50 | 36 | 5.0 | 11.0 | 0.00 | 0.44 | 0.44 | 94 | 1015.0 |
| 20260507033624 | 50 | 19 | 5.0 | 11.0 | 0.00 | 0.44 | 0.44 | 94 | 1015.2 |
| 20260507033523 | 50 | 28 | 5.0 | 11.0 | 0.00 | 0.44 | 0.44 | 94 | 1015.3 |
| 20260507033418 | 50 | 67 | 5.0 | 11.0 | 0.00 | 0.44 | 0.44 | 94 | 1015.4 |
| 20260507033400 | 50 | 34 | 5.0 | 16.0 | 0.00 | 0.44 | 0.44 | 94 | 1015.5 |
| 20260507033342 | 50 | 48 | 4.0 | 11.0 | 0.00 | 0.44 | 0.44 | 94 | 1015.4 |
| 20260507033119 | 50 | 49 | 5.0 | 16.0 | 0.00 | 0.44 | 0.44 | 94 | 1015.6 |
| 20260507033017 | 50 | 0 | 5.0 | 16.0 | 0.00 | 0.44 | 0.44 | 94 | 1015.6 |
| 20260507032913 | 50 | 38 | 5.0 | 16.0 | 0.00 | 0.44 | 0.44 | 94 | 1015.6 |
| 20260507032810 | 50 | 30 | 6.0 | 16.0 | 0.00 | 0.44 | 0.44 | 94 | 1015.6 |
| 20260507032746 | 50 | 83 | 5.0 | 16.0 | 0.00 | 0.44 | 0.44 | 94 | 1015.7 |
| 20260507032732 | 50 | 39 | 6.0 | 16.0 | 0.00 | 0.44 | 0.44 | 94 | 1015.8 |
| 20260507032511 | 50 | 35 | 5.0 | 16.0 | 0.00 | 0.44 | 0.44 | 94 | 1015.7 |
| 20260507032357 | 50 | 69 | 6.0 | 16.0 | 0.00 | 0.44 | 0.44 | 94 | 1015.7 |
| 20260507032255 | 50 | 42 | 6.0 | 16.0 | 0.00 | 0.44 | 0.44 | 94 | 1015.6 |
| 20260507032159 | 50 | 43 | 5.0 | 15.0 | 0.00 | 0.44 | 0.44 | 94 | 1015.6 |
| 20260507032058 | 50 | 32 | 5.0 | 15.0 | 0.00 | 0.44 | 0.44 | 94 | 1015.6 |
| 20260507031957 | 50 | 42 | 5.0 | 15.0 | 0.00 | 0.44 | 0.44 | 94 | 1015.4 |
| 20260507031851 | 50 | 69 | 5.0 | 15.0 | 0.00 | 0.44 | 0.44 | 94 | 1015.4 |
| 20260507031750 | 50 | 42 | 4.0 | 15.0 | 0.00 | 0.44 | 0.44 | 94 | 1015.4 |
| 20260507031704 | 50 | 355 | 5.0 | 13.0 | 0.00 | 0.44 | 0.44 | 94 | 1015.4 |
| 20260507031652 | 50 | 59 | 5.0 | 12.0 | 0.00 | 0.44 | 0.44 | 94 | 1015.4 |
| 20260507031629 | 50 | 51 | 5.0 | 13.0 | 0.00 | 0.44 | 0.44 | 94 | 1015.3 |
| 20260507031507 | 50 | 42 | 5.0 | 13.0 | 0.00 | 0.44 | 0.44 | 94 | 1015.3 |
| 20260507031246 | 50 | 42 | 5.0 | 13.0 | 0.00 | 0.44 | 0.44 | 94 | 1015.3 |
| 20260507031146 | 50 | 59 | 5.0 | 13.0 | 0.00 | 0.44 | 0.44 | 94 | 1015.2 |
| 20260507031126 | 50 | 57 | 5.0 | 13.0 | 0.00 | 0.44 | 0.44 | 94 | 1015.1 |
| 20260507031112 | 50 | 36 | 5.0 | 13.0 | 0.00 | 0.44 | 0.44 | 94 | 1015.2 |
| 20260507030834 | 50 | 24 | 5.0 | 13.0 | 0.00 | 0.44 | 0.44 | 94 | 1015.1 |
| 20260507030734 | 50 | 33 | 5.0 | 13.0 | 0.00 | 0.44 | 0.44 | 94 | 1015.1 |
| 20260507030706 | 50 | 0 | 5.0 | 12.0 | 0.00 | 0.44 | 0.44 | 94 | 1015.0 |
| 20260507030655 | 50 | 40 | 5.0 | 13.0 | 0.00 | 0.44 | 0.44 | 94 | 1015.1 |
| 20260507030436 | 50 | 63 | 6.0 | 12.0 | 0.00 | 0.44 | 0.44 | 94 | 1014.8 |
| 20260507030329 | 50 | 40 | 6.0 | 12.0 | 0.00 | 0.44 | 0.44 | 94 | 1014.8 |
| 20260507030229 | 50 | 59 | 6.0 | 12.0 | 0.00 | 0.44 | 0.44 | 94 | 1014.7 |
| 20260507030203 | 50 | 60 | 6.0 | 12.0 | 0.00 | 0.44 | 0.44 | 94 | 1014.7 |
| 20260507030151 | 50 | 57 | 6.0 | 12.0 | 0.00 | 0.44 | 0.44 | 94 | 1014.7 |
| 20260507025928 | 50 | 57 | 6.0 | 12.0 | 0.00 | 0.44 | 0.44 | 94 | 1014.7 |
| 20260507025824 | 50 | 32 | 6.0 | 12.0 | 0.00 | 0.44 | 0.44 | 94 | 1014.6 |
| 20260507025723 | 50 | 45 | 6.0 | 12.0 | 0.00 | 0.44 | 0.44 | 94 | 1014.5 |
| 20260507025659 | 50 | 45 | 6.0 | 13.0 | 0.00 | 0.44 | 0.44 | 94 | 1014.6 |
| 20260507025646 | 50 | 53 | 6.0 | 12.0 | 0.00 | 0.44 | 0.44 | 94 | 1014.5 |
| 20260507025422 | 50 | 49 | 6.0 | 13.0 | 0.00 | 0.44 | 0.44 | 94 | 1014.6 |
| 20260507025310 | 50 | 18 | 6.0 | 13.0 | 0.00 | 0.44 | 0.44 | 94 | 1014.6 |
| 20260507025211 | 50 | 57 | 6.0 | 13.0 | 0.00 | 0.44 | 0.44 | 94 | 1014.7 |
| 20260507025110 | 50 | 57 | 6.0 | 13.0 | 0.00 | 0.44 | 0.44 | 94 | 1014.7 |
| 20260507025010 | 50 | 22 | 6.0 | 13.0 | 0.00 | 0.44 | 0.44 | 94 | 1014.7 |
| 20260507024910 | 50 | 48 | 6.0 | 13.0 | 0.00 | 0.44 | 0.44 | 94 | 1014.7 |
| 20260507024810 | 50 | 19 | 6.0 | 13.0 | 0.00 | 0.44 | 0.44 | 94 | 1014.7 |
| 20260507024743 | 50 | 52 | 6.0 | 13.0 | 0.00 | 0.44 | 0.44 | 94 | 1014.5 |
| 20260507024732 | 50 | 60 | 6.0 | 13.0 | 0.00 | 0.44 | 0.44 | 94 | 1014.7 |
| 20260507024509 | 50 | 72 | 6.0 | 12.0 | 0.00 | 0.44 | 0.44 | 94 | 1014.6 |
| 20260507024410 | 50 | 59 | 6.0 | 12.0 | 0.00 | 0.44 | 0.44 | 94 | 1014.5 |
| 20260507024342 | 50 | 30 | 6.0 | 13.0 | 0.00 | 0.44 | 0.44 | 94 | 1014.3 |
| 20260507024332 | 50 | 57 | 6.0 | 12.0 | 0.00 | 0.44 | 0.44 | 94 | 1014.3 |
| 20260507024109 | 50 | 47 | 6.0 | 13.0 | 0.00 | 0.44 | 0.44 | 94 | 1014.3 |
| 20260507024011 | 50 | 36 | 6.0 | 13.0 | 0.00 | 0.44 | 0.44 | 94 | 1014.3 |
| 20260507023910 | 50 | 43 | 6.0 | 13.0 | 0.00 | 0.44 | 0.44 | 94 | 1014.4 |
| 20260507023810 | 50 | 51 | 6.0 | 13.0 | 0.00 | 0.44 | 0.44 | 94 | 1014.3 |
| 20260507023737 | 50 | 56 | 6.0 | 13.0 | 0.00 | 0.44 | 0.44 | 94 | 1014.3 |
| 20260507023726 | 50 | 56 | 6.0 | 13.0 | 0.00 | 0.44 | 0.44 | 94 | 1014.2 |
| 20260507023536 | 50 | 39 | 6.0 | 13.0 | 0.00 | 0.44 | 0.44 | 94 | 1014.5 |
| 20260507023526 | 50 | 65 | 6.0 | 13.0 | 0.00 | 0.44 | 0.44 | 94 | 1014.4 |
| 20260507023303 | 50 | 44 | 5.0 | 13.0 | 0.00 | 0.44 | 0.44 | 94 | 1014.6 |
| 20260507023205 | 50 | 346 | 5.0 | 13.0 | 0.00 | 0.44 | 0.44 | 94 | 1014.8 |
| 20260507023101 | 50 | 52 | 5.0 | 13.0 | 0.00 | 0.44 | 0.44 | 94 | 1015.1 |
| 20260507023001 | 50 | 50 | 5.0 | 13.0 | 0.00 | 0.44 | 0.44 | 94 | 1015.2 |
| 20260507022859 | 50 | 31 | 5.0 | 13.0 | 0.00 | 0.44 | 0.44 | 94 | 1015.2 |
| 20260507022759 | 50 | 58 | 5.0 | 13.0 | 0.00 | 0.44 | 0.44 | 94 | 1015.2 |
| 20260507022659 | 50 | 22 | 5.0 | 12.0 | 0.00 | 0.44 | 0.44 | 94 | 1015.3 |
| 20260507022600 | 50 | 53 | 5.0 | 12.0 | 0.00 | 0.44 | 0.44 | 94 | 1015.3 |
| 20260507022459 | 50 | 51 | 5.0 | 12.0 | 0.00 | 0.44 | 0.44 | 94 | 1015.2 |
| 20260507022402 | 50 | 61 | 5.0 | 13.0 | 0.00 | 0.44 | 0.44 | 94 | 1015.3 |
| 20260507022302 | 50 | 49 | 5.0 | 14.0 | 0.00 | 0.44 | 0.44 | 94 | 1015.2 |
| 20260507022237 | 50 | 66 | 5.0 | 14.0 | 0.00 | 0.44 | 0.44 | 94 | 1015.2 |
| 20260507022223 | 50 | 74 | 5.0 | 14.0 | 0.00 | 0.44 | 0.44 | 94 | 1015.1 |
| 20260507022001 | 50 | 33 | 6.0 | 15.0 | 0.00 | 0.44 | 0.44 | 94 | 1015.2 |
| 20260507021854 | 50 | 59 | 6.0 | 15.0 | 0.00 | 0.44 | 0.44 | 94 | 1015.2 |
| 20260507021755 | 50 | 28 | 6.0 | 15.0 | 0.00 | 0.44 | 0.44 | 94 | 1015.3 |
| 20260507021732 | 50 | 55 | 6.0 | 15.0 | 0.00 | 0.44 | 0.44 | 94 | 1015.3 |
| 20260507021721 | 50 | 49 | 6.0 | 15.0 | 0.00 | 0.44 | 0.44 | 94 | 1015.3 |
| 20260507021455 | 50 | 82 | 6.0 | 15.0 | 0.00 | 0.44 | 0.44 | 94 | 1015.3 |
| 20260507021351 | 50 | 69 | 6.0 | 15.0 | 0.00 | 0.44 | 0.44 | 94 | 1015.2 |
| 20260507021252 | 50 | 355 | 7.0 | 15.0 | 0.00 | 0.44 | 0.44 | 94 | 1015.2 |
| 20260507021152 | 50 | 33 | 7.0 | 15.0 | 0.00 | 0.44 | 0.44 | 94 | 1015.1 |
| 20260507021052 | 50 | 0 | 6.0 | 15.0 | 0.00 | 0.44 | 0.44 | 94 | 1015.2 |
| 20260507020951 | 50 | 71 | 6.0 | 15.0 | 0.00 | 0.44 | 0.44 | 94 | 1015.3 |
| 20260507020852 | 50 | 17 | 6.0 | 15.0 | 0.00 | 0.44 | 0.44 | 94 | 1015.3 |
| 20260507020753 | 50 | 61 | 5.0 | 15.0 | 0.00 | 0.44 | 0.44 | 94 | 1015.4 |
| 20260507020654 | 50 | 34 | 5.0 | 13.0 | 0.00 | 0.44 | 0.44 | 94 | 1015.4 |
| 20260507020551 | 50 | 44 | 5.0 | 13.0 | 0.00 | 0.44 | 0.44 | 94 | 1015.4 |
| 20260507020452 | 50 | 15 | 5.0 | 13.0 | 0.00 | 0.44 | 0.44 | 94 | 1015.5 |
| 20260507020427 | 50 | 47 | 4.0 | 11.0 | 0.00 | 0.44 | 0.44 | 94 | 1015.4 |
| 20260507020416 | 50 | 24 | 4.0 | 13.0 | 0.00 | 0.44 | 0.44 | 94 | 1015.5 |
| 20260507020148 | 50 | 61 | 4.0 | 10.0 | 0.00 | 0.44 | 0.44 | 94 | 1015.4 |
| 20260507020047 | 50 | 50 | 4.0 | 9.0 | 0.00 | 0.44 | 0.44 | 94 | 1015.5 |
| 20260507015948 | 50 | 30 | 4.0 | 9.0 | 0.00 | 0.44 | 0.44 | 94 | 1015.4 |
| 20260507015848 | 50 | 39 | 4.0 | 9.0 | 0.00 | 0.44 | 0.44 | 94 | 1015.4 |
| 20260507015747 | 50 | 29 | 4.0 | 9.0 | 0.00 | 0.44 | 0.44 | 94 | 1015.5 |
| 20260507015649 | 50 | 29 | 4.0 | 9.0 | 0.00 | 0.44 | 0.44 | 94 | 1015.4 |
| 20260507015636 | 50 | 54 | 4.0 | 9.0 | 0.00 | 0.44 | 0.44 | 94 | 1015.0 |
| 20260507015632 | 50 | 24 | 4.0 | 9.0 | 0.00 | 0.44 | 0.44 | 94 | 1015.1 |
| 20260507015626 | 50 | 49 | 4.0 | 10.0 | 0.00 | 0.44 | 0.44 | 94 | 1015.3 |
| 20260507015609 | 50 | 33 | 4.0 | 9.0 | 0.00 | 0.44 | 0.44 | 94 | 1015.2 |
| 20260507015550 | 50 | 67 | 4.0 | 9.0 | 0.00 | 0.44 | 0.44 | 94 | 1015.1 |
| 20260507015047 | 50 | 52 | 4.0 | 10.0 | 0.00 | 0.44 | 0.44 | 94 | 1015.3 |
| 20260507014941 | 50 | 61 | 4.0 | 10.0 | 0.00 | 0.44 | 0.44 | 94 | 1015.4 |
| 20260507014841 | 50 | 42 | 4.0 | 10.0 | 0.00 | 0.44 | 0.44 | 94 | 1015.7 |
| 20260507014817 | 50 | 61 | 4.0 | 10.0 | 0.00 | 0.44 | 0.44 | 94 | 1016.0 |
| 20260507014805 | 50 | 61 | 4.0 | 10.0 | 0.00 | 0.44 | 0.44 | 94 | 1015.9 |
| 20260507014610 | 50 | 327 | 4.0 | 10.0 | 0.00 | 0.44 | 0.44 | 94 | 1015.7 |
| 20260507014601 | 50 | 0 | 4.0 | 10.0 | 0.00 | 0.44 | 0.44 | 94 | 1015.9 |
| 20260507014339 | 50 | 49 | 3.0 | 10.0 | 0.00 | 0.44 | 0.44 | 94 | 1015.7 |
| 20260507014237 | 50 | 348 | 3.0 | 10.0 | 0.00 | 0.44 | 0.44 | 94 | 1016.0 |
| 20260507014137 | 50 | 36 | 3.0 | 10.0 | 0.00 | 0.44 | 0.44 | 94 | 1016.1 |
| 20260507014037 | 50 | 350 | 2.0 | 10.0 | 0.00 | 0.44 | 0.44 | 94 | 1016.1 |
| 20260507013938 | 50 | 355 | 2.0 | 7.0 | 0.00 | 0.44 | 0.44 | 94 | 1016.0 |
| 20260507013837 | 50 | 27 | 2.0 | 7.0 | 0.00 | 0.44 | 0.44 | 94 | 1015.8 |
| 20260507013739 | 50 | 350 | 2.0 | 7.0 | 0.00 | 0.44 | 0.44 | 94 | 1015.7 |
| 20260507013639 | 50 | 334 | 2.0 | 7.0 | 0.00 | 0.44 | 0.44 | 94 | 1015.6 |
| 20260507013537 | 50 | 69 | 2.0 | 7.0 | 0.00 | 0.44 | 0.44 | 94 | 1015.4 |
| 20260507013437 | 50 | 34 | 2.0 | 7.0 | 0.00 | 0.44 | 0.44 | 94 | 1015.4 |
| 20260507013339 | 50 | 38 | 2.0 | 7.0 | 0.00 | 0.44 | 0.44 | 94 | 1015.3 |
| 20260507013237 | 50 | 41 | 2.0 | 7.0 | 0.00 | 0.44 | 0.44 | 94 | 1015.2 |
| 20260507013137 | 50 | 41 | 2.0 | 7.0 | 0.00 | 0.44 | 0.44 | 94 | 1015.1 |
| 20260507013035 | 50 | 40 | 2.0 | 7.0 | 0.00 | 0.44 | 0.44 | 94 | 1015.1 |
| 20260507012935 | 50 | 40 | 2.0 | 7.0 | 0.00 | 0.44 | 0.44 | 94 | 1015.0 |
| 20260507012833 | 50 | 53 | 2.0 | 7.0 | 0.00 | 0.44 | 0.44 | 94 | 1014.8 |
| 20260507012731 | 50 | 54 | 2.0 | 7.0 | 0.00 | 0.44 | 0.44 | 94 | 1014.8 |
| 20260507012630 | 50 | 42 | 2.0 | 7.0 | 0.00 | 0.44 | 0.44 | 94 | 1014.8 |
| 20260507012531 | 50 | 72 | 2.0 | 6.0 | 0.00 | 0.44 | 0.44 | 94 | 1014.7 |
| 20260507012430 | 50 | 38 | 2.0 | 6.0 | 0.00 | 0.44 | 0.44 | 94 | 1014.8 |
| 20260507012329 | 50 | 57 | 2.0 | 7.0 | 0.00 | 0.44 | 0.44 | 94 | 1015.0 |
| 20260507012229 | 50 | 63 | 2.0 | 7.0 | 0.00 | 0.44 | 0.44 | 94 | 1015.0 |
| 20260507012131 | 50 | 114 | 3.0 | 9.0 | 0.01 | 0.44 | 0.44 | 94 | 1015.0 |
| 20260507012026 | 50 | 117 | 3.0 | 9.0 | 0.01 | 0.44 | 0.44 | 94 | 1015.1 |
| 20260507011926 | 50 | 94 | 4.0 | 9.0 | 0.01 | 0.44 | 0.44 | 94 | 1015.2 |
| 20260507011827 | 50 | 94 | 4.0 | 9.0 | 0.01 | 0.44 | 0.44 | 94 | 1015.1 |
| 20260507011727 | 50 | 92 | 5.0 | 13.0 | 0.01 | 0.44 | 0.44 | 94 | 1015.1 |
| 20260507011700 | 50 | 85 | 5.0 | 13.0 | 0.01 | 0.44 | 0.44 | 94 | 1015.0 |
| 20260507011649 | 50 | 115 | 5.0 | 13.0 | 0.01 | 0.44 | 0.44 | 94 | 1015.0 |
| 20260507011425 | 50 | 98 | 5.0 | 13.0 | 0.01 | 0.44 | 0.44 | 94 | 1014.7 |
| 20260507011326 | 50 | 42 | 5.0 | 13.0 | 0.01 | 0.44 | 0.44 | 94 | 1014.6 |
| 20260507011227 | 50 | 73 | 6.0 | 13.0 | 0.01 | 0.44 | 0.44 | 94 | 1014.5 |
| 20260507011125 | 50 | 80 | 6.0 | 13.0 | 0.01 | 0.44 | 0.44 | 94 | 1014.4 |
| 20260507011026 | 50 | 103 | 6.0 | 13.0 | 0.01 | 0.44 | 0.44 | 94 | 1014.3 |
| 20260507010925 | 50 | 67 | 6.0 | 13.0 | 0.01 | 0.44 | 0.44 | 94 | 1014.3 |
| 20260507010827 | 50 | 65 | 6.0 | 13.0 | 0.01 | 0.44 | 0.44 | 94 | 1014.3 |
| 20260507010727 | 50 | 51 | 5.0 | 11.0 | 0.01 | 0.44 | 0.44 | 94 | 1014.4 |
| 20260507010627 | 50 | 63 | 6.0 | 11.0 | 0.01 | 0.44 | 0.44 | 94 | 1014.3 |
| 20260507010525 | 50 | 78 | 6.0 | 11.0 | 0.01 | 0.44 | 0.44 | 94 | 1014.2 |
| 20260507010452 | 50 | 92 | 6.0 | 12.0 | 0.01 | 0.44 | 0.44 | 94 | 1014.1 |
| 20260507010447 | 50 | 82 | 6.0 | 12.0 | 0.01 | 0.44 | 0.44 | 94 | 1014.1 |
| 20260507010433 | 50 | 59 | 6.0 | 11.0 | 0.01 | 0.44 | 0.44 | 94 | 1014.1 |
| 20260507010409 | 50 | 80 | 6.0 | 12.0 | 0.01 | 0.44 | 0.44 | 94 | 1014.1 |
| 20260507010025 | 50 | 68 | 6.0 | 12.0 | 0.01 | 0.44 | 0.44 | 94 | 1014.1 |
| 20260507005925 | 50 | 44 | 6.0 | 12.0 | 0.01 | 0.44 | 0.44 | 94 | 1014.1 |
| 20260507005826 | 50 | 63 | 6.0 | 12.0 | 0.01 | 0.44 | 0.44 | 94 | 1014.1 |
| 20260507005726 | 50 | 55 | 5.0 | 12.0 | 0.01 | 0.44 | 0.44 | 94 | 1014.1 |
| 20260507005707 | 50 | 39 | 5.0 | 12.0 | 0.01 | 0.44 | 0.44 | 94 | 1014.2 |
| 20260507005651 | 50 | 57 | 5.0 | 12.0 | 0.01 | 0.44 | 0.44 | 94 | 1014.2 |
| 20260507005421 | 50 | 38 | 5.0 | 12.0 | 0.01 | 0.44 | 0.44 | 94 | 1014.2 |
| 20260507005322 | 50 | 58 | 4.0 | 11.0 | 0.01 | 0.44 | 0.44 | 94 | 1014.3 |
| 20260507005253 | 50 | 42 | 4.0 | 11.0 | 0.01 | 0.44 | 0.44 | 94 | 1014.4 |
| 20260507005244 | 50 | 73 | 4.0 | 11.0 | 0.01 | 0.44 | 0.44 | 94 | 1014.3 |
| 20260507005022 | 50 | 62 | 4.0 | 11.0 | 0.01 | 0.44 | 0.44 | 94 | 1014.5 |
| 20260507004921 | 50 | 55 | 4.0 | 11.0 | 0.01 | 0.44 | 0.44 | 94 | 1014.5 |
| 20260507004826 | 50 | 65 | 4.0 | 11.0 | 0.01 | 0.44 | 0.44 | 94 | 1014.6 |
| 20260507004717 | 50 | 68 | 4.0 | 11.0 | 0.01 | 0.44 | 0.44 | 94 | 1014.6 |
| 20260507004616 | 50 | 57 | 4.0 | 11.0 | 0.01 | 0.44 | 0.44 | 94 | 1014.7 |
| 20260507004553 | 50 | 109 | 4.0 | 11.0 | 0.01 | 0.44 | 0.44 | 94 | 1014.8 |
| 20260507004540 | 50 | 44 | 4.0 | 11.0 | 0.01 | 0.44 | 0.44 | 94 | 1014.7 |
| 20260507004317 | 50 | 65 | 5.0 | 11.0 | 0.01 | 0.44 | 0.44 | 94 | 1014.8 |
| 20260507004217 | 50 | 63 | 5.0 | 11.0 | 0.01 | 0.44 | 0.44 | 94 | 1014.7 |
| 20260507004117 | 50 | 57 | 5.0 | 13.0 | 0.01 | 0.44 | 0.44 | 94 | 1014.7 |
| 20260507004018 | 50 | 82 | 5.0 | 13.0 | 0.01 | 0.44 | 0.44 | 94 | 1014.8 |
| 20260507003917 | 50 | 55 | 6.0 | 13.0 | 0.01 | 0.44 | 0.44 | 94 | 1014.8 |
| 20260507003817 | 50 | 46 | 6.0 | 13.0 | 0.01 | 0.44 | 0.44 | 94 | 1014.6 |
| 20260507003719 | 50 | 64 | 6.0 | 13.0 | 0.02 | 0.44 | 0.44 | 94 | 1014.5 |
| 20260507003617 | 50 | 63 | 6.0 | 13.0 | 0.02 | 0.44 | 0.44 | 94 | 1014.4 |
| 20260507003549 | 50 | 57 | 6.0 | 13.0 | 0.02 | 0.44 | 0.44 | 94 | 1014.4 |
| 20260507003539 | 50 | 67 | 6.0 | 13.0 | 0.02 | 0.44 | 0.44 | 94 | 1014.4 |
| 20260507003318 | 50 | 47 | 6.0 | 13.0 | 0.02 | 0.44 | 0.44 | 94 | 1014.3 |
| 20260507003219 | 50 | 86 | 5.0 | 13.0 | 0.02 | 0.44 | 0.44 | 94 | 1014.3 |
| 20260507003118 | 50 | 37 | 6.0 | 11.0 | 0.02 | 0.44 | 0.44 | 94 | 1014.3 |
| 20260507003019 | 50 | 71 | 5.0 | 13.0 | 0.02 | 0.44 | 0.44 | 94 | 1014.2 |
| 20260507002917 | 50 | 67 | 5.0 | 13.0 | 0.02 | 0.44 | 0.44 | 94 | 1014.2 |
| 20260507002819 | 50 | 55 | 5.0 | 13.0 | 0.02 | 0.44 | 0.44 | 94 | 1014.3 |
| 20260507002717 | 50 | 28 | 5.0 | 13.0 | 0.02 | 0.44 | 0.44 | 94 | 1014.2 |
| 20260507002617 | 50 | 51 | 5.0 | 13.0 | 0.02 | 0.44 | 0.44 | 94 | 1014.2 |
| 20260507002518 | 50 | 82 | 5.0 | 13.0 | 0.02 | 0.44 | 0.44 | 94 | 1014.2 |
| 20260507002448 | 50 | 47 | 5.0 | 13.0 | 0.02 | 0.44 | 0.44 | 94 | 1014.3 |
| 20260507002319 | 50 | 49 | 5.0 | 14.0 | 0.02 | 0.44 | 0.44 | 94 | 1014.3 |
| 20260507002219 | 50 | 54 | 5.0 | 14.0 | 0.02 | 0.44 | 0.44 | 94 | 1014.4 |
| 20260507002144 | 50 | 65 | 6.0 | 14.0 | 0.01 | 0.43 | 0.43 | 94 | 1014.3 |
| 20260507002128 | 50 | 56 | 6.0 | 14.0 | 0.01 | 0.43 | 0.44 | 94 | 1014.4 |
| 20260507001905 | 50 | 42 | 6.0 | 14.0 | 0.01 | 0.43 | 0.43 | 94 | 1014.2 |
| 20260507001806 | 50 | 67 | 6.0 | 14.0 | 0.01 | 0.43 | 0.43 | 94 | 1014.3 |
| 20260507001705 | 50 | 56 | 6.0 | 14.0 | 0.01 | 0.43 | 0.43 | 94 | 1014.3 |
| 20260507001606 | 50 | 33 | 7.0 | 14.0 | 0.01 | 0.43 | 0.43 | 94 | 1014.2 |
| 20260507001505 | 50 | 78 | 7.0 | 16.0 | 0.01 | 0.43 | 0.43 | 94 | 1014.1 |
| 20260507001407 | 50 | 58 | 7.0 | 16.0 | 0.01 | 0.43 | 0.43 | 94 | 1013.9 |
| 20260507001306 | 50 | 26 | 7.0 | 16.0 | 0.01 | 0.43 | 0.43 | 94 | 1013.9 |
| 20260507001206 | 50 | 44 | 7.0 | 16.0 | 0.01 | 0.43 | 0.43 | 94 | 1013.9 |
| 20260507001141 | 50 | 0 | 7.0 | 16.0 | 0.01 | 0.43 | 0.43 | 94 | 1014.1 |
| 20260507001129 | 50 | 22 | 7.0 | 16.0 | 0.01 | 0.43 | 0.43 | 94 | 1014.0 |
| 20260507000905 | 50 | 21 | 7.0 | 16.0 | 0.01 | 0.43 | 0.43 | 94 | 1014.1 |
| 20260507000806 | 50 | 39 | 7.0 | 16.0 | 0.01 | 0.43 | 0.43 | 94 | 1014.1 |
| 20260507000705 | 50 | 43 | 7.0 | 16.0 | 0.01 | 0.43 | 0.43 | 94 | 1014.1 |
| 20260507000605 | 50 | 59 | 7.0 | 16.0 | 0.01 | 0.43 | 0.43 | 94 | 1014.1 |
| 20260507000505 | 50 | 56 | 6.0 | 15.0 | 0.01 | 0.43 | 0.43 | 94 | 1014.0 |
| 20260507000406 | 50 | 44 | 6.0 | 15.0 | 0.01 | 0.43 | 0.43 | 94 | 1014.0 |
| 20260507000306 | 51 | 44 | 5.0 | 15.0 | 0.01 | 0.43 | 0.43 | 94 | 1014.0 |
| 20260507000205 | 51 | 13 | 5.0 | 12.0 | 0.01 | 0.43 | 0.43 | 94 | 1014.1 |
| 20260507000104 | 51 | 78 | 5.0 | 12.0 | 0.01 | 0.43 | 0.43 | 94 | 1014.1 |
| 20260507000003 | 51 | 24 | 5.0 | 12.0 | 0.01 | 0.43 | 0.43 | 94 | 1014.0 |
| 20260506235901 | 51 | 19 | 5.0 | 12.0 | 0.01 | 0.43 | 0.43 | 94 | 1014.0 |
| 20260506235802 | 51 | 45 | 4.0 | 11.0 | 0.01 | 0.43 | 0.43 | 94 | 1014.2 |
| 20260506235703 | 51 | 21 | 4.0 | 11.0 | 0.01 | 0.43 | 0.43 | 94 | 1014.4 |
| 20260506235635 | 51 | 16 | 4.0 | 11.0 | 0.01 | 0.43 | 0.43 | 94 | 1014.8 |
| 20260506235624 | 51 | 54 | 4.0 | 11.0 | 0.01 | 0.43 | 0.43 | 94 | 1014.5 |
| 20260506235402 | 51 | 36 | 3.0 | 11.0 | 0.01 | 0.43 | 0.43 | 94 | 1015.0 |
| 20260506235302 | 51 | 46 | 3.0 | 11.0 | 0.01 | 0.43 | 0.43 | 94 | 1015.0 |
| 20260506235201 | 51 | 56 | 3.0 | 10.0 | 0.01 | 0.43 | 0.43 | 94 | 1015.0 |
| 20260506235131 | 51 | 69 | 3.0 | 10.0 | 0.01 | 0.43 | 0.43 | 94 | 1015.0 |
| 20260506235121 | 51 | 61 | 3.0 | 10.0 | 0.01 | 0.43 | 0.43 | 94 | 1015.0 |
| 20260506234855 | 51 | 69 | 3.0 | 10.0 | 0.01 | 0.43 | 0.43 | 94 | 1015.0 |
| 20260506234826 | 51 | 9 | 3.0 | 12.0 | 0.01 | 0.43 | 0.43 | 94 | 1014.8 |
| 20260506234817 | 51 | 60 | 3.0 | 10.0 | 0.01 | 0.43 | 0.43 | 94 | 1014.8 |
| 20260506234555 | 51 | 20 | 3.0 | 12.0 | 0.01 | 0.43 | 0.43 | 94 | 1014.8 |
| 20260506234449 | 51 | 32 | 4.0 | 12.0 | 0.02 | 0.43 | 0.43 | 94 | 1015.0 |
| 20260506234349 | 51 | 63 | 4.0 | 12.0 | 0.02 | 0.43 | 0.43 | 94 | 1014.8 |
| 20260506234250 | 51 | 26 | 4.0 | 12.0 | 0.02 | 0.43 | 0.43 | 94 | 1014.8 |
| 20260506234224 | 51 | 65 | 4.0 | 12.0 | 0.02 | 0.43 | 0.43 | 94 | 1015.1 |
| 20260506234212 | 51 | 59 | 4.0 | 12.0 | 0.02 | 0.43 | 0.43 | 94 | 1014.8 |
| 20260506234018 | 51 | 5 | 4.0 | 12.0 | 0.02 | 0.43 | 0.43 | 94 | 1015.1 |
| 20260506234005 | 51 | 53 | 4.0 | 12.0 | 0.02 | 0.43 | 0.43 | 94 | 1015.1 |
| 20260506233746 | 51 | 28 | 4.0 | 10.0 | 0.01 | 0.42 | 0.43 | 94 | 1015.1 |
| 20260506233643 | 51 | 47 | 4.0 | 10.0 | 0.01 | 0.42 | 0.42 | 94 | 1015.0 |
| 20260506233543 | 51 | 15 | 4.0 | 10.0 | 0.01 | 0.42 | 0.42 | 94 | 1015.0 |
| 20260506233433 | 51 | 69 | 4.0 | 10.0 | 0.01 | 0.42 | 0.42 | 94 | 1014.7 |
| 20260506233333 | 51 | 62 | 4.0 | 10.0 | 0.01 | 0.42 | 0.42 | 94 | 1014.8 |
| 20260506233311 | 51 | 44 | 5.0 | 13.0 | 0.01 | 0.42 | 0.42 | 94 | 1015.4 |
| 20260506233259 | 51 | 76 | 4.0 | 13.0 | 0.01 | 0.42 | 0.42 | 94 | 1015.2 |
| 20260506233034 | 51 | 324 | 5.0 | 13.0 | 0.01 | 0.42 | 0.42 | 94 | 1015.5 |
| 20260506232934 | 51 | 351 | 5.0 | 13.0 | 0.01 | 0.42 | 0.42 | 94 | 1015.6 |
| 20260506232831 | 51 | 55 | 5.0 | 13.0 | 0.01 | 0.42 | 0.42 | 94 | 1015.6 |
| 20260506232729 | 51 | 24 | 5.0 | 13.0 | 0.01 | 0.42 | 0.42 | 94 | 1015.8 |
| 20260506232630 | 51 | 56 | 6.0 | 13.0 | 0.01 | 0.42 | 0.42 | 94 | 1015.9 |
| 20260506232603 | 51 | 348 | 6.0 | 15.0 | 0.02 | 0.42 | 0.42 | 94 | 1016.1 |
| 20260506232549 | 51 | 355 | 6.0 | 13.0 | 0.02 | 0.42 | 0.42 | 94 | 1016.1 |
| 20260506232322 | 51 | 30 | 6.0 | 16.0 | 0.02 | 0.42 | 0.42 | 94 | 1016.1 |
| 20260506232222 | 51 | 5 | 6.0 | 16.0 | 0.02 | 0.42 | 0.42 | 94 | 1016.1 |
| 20260506232123 | 51 | 38 | 6.0 | 16.0 | 0.02 | 0.42 | 0.42 | 94 | 1016.1 |
| 20260506232022 | 51 | 13 | 6.0 | 16.0 | 0.03 | 0.42 | 0.42 | 94 | 1015.9 |
| 20260506231912 | 51 | 321 | 6.0 | 16.0 | 0.03 | 0.42 | 0.42 | 94 | 1015.8 |
| 20260506231811 | 51 | 11 | 7.0 | 16.0 | 0.03 | 0.42 | 0.42 | 94 | 1015.7 |
| 20260506231712 | 51 | 355 | 7.0 | 16.0 | 0.03 | 0.42 | 0.42 | 94 | 1015.5 |
| 20260506231612 | 51 | 11 | 7.0 | 16.0 | 0.04 | 0.42 | 0.42 | 94 | 1015.4 |
| 20260506231511 | 51 | 25 | 8.0 | 16.0 | 0.04 | 0.42 | 0.42 | 94 | 1015.3 |
| 20260506231412 | 51 | 5 | 8.0 | 16.0 | 0.04 | 0.42 | 0.42 | 94 | 1015.0 |
| 20260506231310 | 51 | 35 | 8.0 | 17.0 | 0.04 | 0.42 | 0.42 | 94 | 1014.6 |
| 20260506231209 | 51 | 20 | 8.0 | 17.0 | 0.04 | 0.42 | 0.42 | 94 | 1014.2 |
| 20260506231109 | 51 | 348 | 8.0 | 17.0 | 0.04 | 0.42 | 0.42 | 94 | 1013.9 |
| 20260506231009 | 51 | 42 | 8.0 | 17.0 | 0.04 | 0.42 | 0.42 | 94 | 1013.8 |
| 20260506230910 | 51 | 63 | 8.0 | 17.0 | 0.04 | 0.42 | 0.42 | 94 | 1013.9 |
| 20260506230810 | 51 | 26 | 8.0 | 17.0 | 0.04 | 0.42 | 0.42 | 94 | 1014.1 |
| 20260506230709 | 51 | 35 | 8.0 | 17.0 | 0.05 | 0.42 | 0.42 | 94 | 1014.3 |
| 20260506230610 | 51 | 55 | 8.0 | 17.0 | 0.05 | 0.42 | 0.42 | 94 | 1014.6 |
| 20260506230509 | 51 | 0 | 7.0 | 17.0 | 0.05 | 0.42 | 0.42 | 94 | 1014.6 |
| 20260506230412 | 51 | 20 | 7.0 | 17.0 | 0.05 | 0.42 | 0.42 | 94 | 1014.7 |
| 20260506230320 | 51 | 16 | 7.0 | 15.0 | 0.05 | 0.42 | 0.42 | 94 | 1014.8 |
| 20260506230211 | 51 | 26 | 7.0 | 15.0 | 0.05 | 0.42 | 0.42 | 94 | 1014.7 |
| 20260506230147 | 51 | 15 | 7.0 | 15.0 | 0.05 | 0.42 | 0.42 | 94 | 1014.6 |
| 20260506230134 | 51 | 15 | 6.0 | 15.0 | 0.05 | 0.42 | 0.42 | 94 | 1014.6 |
| 20260506225910 | 51 | 355 | 7.0 | 15.0 | 0.05 | 0.42 | 0.42 | 94 | 1014.6 |
| 20260506225806 | 51 | 44 | 7.0 | 15.0 | 0.06 | 0.42 | 0.42 | 94 | 1014.4 |
| 20260506225708 | 51 | 42 | 7.0 | 16.0 | 0.06 | 0.42 | 0.42 | 94 | 1014.3 |
| 20260506225607 | 51 | 17 | 7.0 | 16.0 | 0.06 | 0.42 | 0.42 | 94 | 1014.2 |
| 20260506225539 | 51 | 25 | 7.0 | 16.0 | 0.06 | 0.42 | 0.42 | 94 | 1014.3 |
| 20260506225527 | 51 | 47 | 7.0 | 16.0 | 0.06 | 0.42 | 0.42 | 94 | 1014.3 |
| 20260506225308 | 51 | 5 | 7.0 | 16.0 | 0.06 | 0.42 | 0.42 | 94 | 1014.4 |
| 20260506225207 | 51 | 5 | 7.0 | 16.0 | 0.06 | 0.42 | 0.42 | 94 | 1014.5 |
| 20260506225107 | 51 | 22 | 7.0 | 16.0 | 0.06 | 0.42 | 0.42 | 94 | 1014.5 |
| 20260506225007 | 51 | 67 | 7.0 | 16.0 | 0.06 | 0.42 | 0.42 | 94 | 1014.4 |
| 20260506224908 | 51 | 14 | 7.0 | 16.0 | 0.06 | 0.42 | 0.42 | 94 | 1014.4 |
| 20260506224809 | 51 | 19 | 7.0 | 16.0 | 0.06 | 0.42 | 0.42 | 94 | 1014.3 |
| 20260506224707 | 51 | 22 | 7.0 | 14.0 | 0.06 | 0.42 | 0.42 | 94 | 1014.2 |
| 20260506224608 | 51 | 34 | 7.0 | 14.0 | 0.06 | 0.42 | 0.42 | 94 | 1014.1 |
| 20260506224539 | 51 | 37 | 6.0 | 14.0 | 0.05 | 0.41 | 0.41 | 94 | 1013.7 |
| 20260506224529 | 51 | 355 | 7.0 | 14.0 | 0.05 | 0.41 | 0.41 | 94 | 1013.8 |
| 20260506224307 | 51 | 0 | 5.0 | 14.0 | 0.05 | 0.41 | 0.41 | 94 | 1013.7 |
| 20260506224206 | 51 | 21 | 5.0 | 14.0 | 0.05 | 0.41 | 0.41 | 94 | 1013.7 |
| 20260506224106 | 51 | 22 | 4.0 | 14.0 | 0.05 | 0.41 | 0.41 | 94 | 1013.8 |
| 20260506224005 | 51 | 40 | 4.0 | 14.0 | 0.05 | 0.41 | 0.41 | 94 | 1013.8 |
| 20260506223906 | 51 | 19 | 3.0 | 14.0 | 0.05 | 0.41 | 0.41 | 94 | 1013.8 |
| 20260506223836 | 51 | 44 | 2.0 | 11.0 | 0.05 | 0.41 | 0.41 | 94 | 1014.0 |
| 20260506223824 | 51 | 5 | 3.0 | 12.0 | 0.05 | 0.41 | 0.41 | 94 | 1014.0 |
| 20260506223603 | 51 | 26 | 2.0 | 9.0 | 0.05 | 0.41 | 0.41 | 94 | 1014.1 |
| 20260506223503 | 51 | 5 | 2.0 | 9.0 | 0.05 | 0.41 | 0.41 | 94 | 1014.2 |
| 20260506223428 | 51 | 242 | 3.0 | 9.0 | 0.05 | 0.41 | 0.41 | 94 | 1014.5 |
| 20260506223417 | 51 | 244 | 3.0 | 9.0 | 0.05 | 0.41 | 0.41 | 94 | 1014.3 |
| 20260506223154 | 51 | 244 | 3.0 | 10.0 | 0.05 | 0.41 | 0.41 | 94 | 1014.6 |
| 20260506223057 | 51 | 228 | 3.0 | 10.0 | 0.05 | 0.41 | 0.41 | 94 | 1014.6 |
| 20260506222955 | 51 | 237 | 4.0 | 10.0 | 0.05 | 0.41 | 0.41 | 94 | 1014.6 |
| 20260506222855 | 51 | 332 | 4.0 | 10.0 | 0.05 | 0.41 | 0.41 | 94 | 1014.5 |
| 20260506222752 | 51 | 36 | 5.0 | 10.0 | 0.05 | 0.41 | 0.41 | 94 | 1014.5 |
| 20260506222652 | 51 | 29 | 5.0 | 10.0 | 0.05 | 0.41 | 0.41 | 94 | 1014.5 |
| 20260506222615 | 51 | 37 | 5.0 | 10.0 | 0.04 | 0.40 | 0.40 | 94 | 1014.4 |
| 20260506222610 | 51 | 50 | 5.0 | 10.0 | 0.04 | 0.40 | 0.40 | 94 | 1014.3 |
| 20260506222557 | 51 | 28 | 5.0 | 10.0 | 0.04 | 0.40 | 0.40 | 94 | 1014.5 |
| 20260506222534 | 51 | 27 | 5.0 | 10.0 | 0.04 | 0.40 | 0.40 | 94 | 1014.5 |
| 20260506222151 | 51 | 30 | 4.0 | 10.0 | 0.04 | 0.40 | 0.40 | 94 | 1014.4 |
| 20260506222051 | 51 | 32 | 5.0 | 10.0 | 0.03 | 0.39 | 0.40 | 94 | 1014.5 |
| 20260506221952 | 51 | 20 | 5.0 | 10.0 | 0.03 | 0.39 | 0.39 | 94 | 1014.8 |
| 20260506221936 | 51 | 350 | 5.0 | 14.0 | 0.02 | 0.38 | 0.38 | 94 | 1015.3 |
| 20260506221932 | 51 | 9 | 4.0 | 11.0 | 0.03 | 0.39 | 0.39 | 94 | 1015.0 |
| 20260506221918 | 51 | 20 | 4.0 | 10.0 | 0.03 | 0.39 | 0.39 | 94 | 1015.0 |
| 20260506221732 | 51 | 14 | 5.0 | 11.0 | 0.03 | 0.39 | 0.39 | 94 | 1015.1 |
| 20260506221608 | 51 | 0 | 5.0 | 14.0 | 0.02 | 0.38 | 0.39 | 94 | 1015.2 |
| 20260506221347 | 51 | 9 | 6.0 | 14.0 | 0.02 | 0.38 | 0.38 | 94 | 1015.3 |
| 20260506221320 | 51 | 36 | 6.0 | 14.0 | 0.02 | 0.38 | 0.38 | 94 | 1015.5 |
| 20260506221308 | 51 | 26 | 6.0 | 14.0 | 0.02 | 0.38 | 0.38 | 94 | 1015.4 |
| 20260506221042 | 51 | 41 | 7.0 | 14.0 | 0.02 | 0.38 | 0.38 | 94 | 1015.6 |
| 20260506221016 | 51 | 18 | 7.0 | 14.0 | 0.02 | 0.38 | 0.38 | 94 | 1015.6 |
| 20260506221003 | 51 | 0 | 7.0 | 14.0 | 0.02 | 0.38 | 0.38 | 94 | 1015.6 |
| 20260506220741 | 51 | 27 | 7.0 | 14.0 | 0.01 | 0.37 | 0.38 | 94 | 1015.4 |
| 20260506220639 | 51 | 328 | 7.0 | 14.0 | 0.01 | 0.37 | 0.37 | 94 | 1015.5 |
| 20260506220535 | 51 | 65 | 7.0 | 14.0 | 0.02 | 0.37 | 0.37 | 94 | 1015.4 |
| 20260506220435 | 51 | 5 | 7.0 | 14.0 | 0.02 | 0.37 | 0.37 | 94 | 1015.3 |
| 20260506220333 | 51 | 5 | 7.0 | 14.0 | 0.02 | 0.37 | 0.37 | 94 | 1015.2 |
| 20260506220231 | 51 | 13 | 7.0 | 14.0 | 0.02 | 0.37 | 0.37 | 94 | 1015.1 |
| 20260506220131 | 51 | 0 | 7.0 | 14.0 | 0.02 | 0.37 | 0.37 | 94 | 1015.1 |
| 20260506220031 | 51 | 355 | 6.0 | 14.0 | 0.02 | 0.37 | 0.37 | 94 | 1015.0 |
| 20260506220002 | 51 | 355 | 6.0 | 13.0 | 0.02 | 0.37 | 0.37 | 94 | 1014.8 |
| 20260506215953 | 51 | 39 | 6.0 | 13.0 | 0.02 | 0.37 | 0.37 | 94 | 1015.0 |
| 20260506215731 | 51 | 30 | 6.0 | 13.0 | 0.01 | 0.36 | 0.36 | 94 | 1014.8 |
| 20260506215631 | 51 | 5 | 6.0 | 13.0 | 0.01 | 0.36 | 0.36 | 94 | 1014.8 |
| 20260506215532 | 51 | 30 | 5.0 | 13.0 | 0.01 | 0.36 | 0.36 | 94 | 1015.0 |
| 20260506215431 | 51 | 0 | 5.0 | 13.0 | 0.01 | 0.36 | 0.36 | 94 | 1014.8 |
| 20260506215331 | 51 | 0 | 5.0 | 13.0 | 0.01 | 0.36 | 0.36 | 94 | 1014.7 |
| 20260506215232 | 51 | 347 | 5.0 | 13.0 | 0.01 | 0.36 | 0.36 | 94 | 1014.7 |
| 20260506215132 | 52 | 36 | 5.0 | 13.0 | 0.01 | 0.36 | 0.36 | 94 | 1014.6 |
| 20260506215105 | 51 | 355 | 5.0 | 13.0 | 0.01 | 0.36 | 0.36 | 94 | 1014.3 |
| 20260506215053 | 51 | 44 | 5.0 | 13.0 | 0.01 | 0.36 | 0.36 | 94 | 1014.4 |
| 20260506214819 | 51 | 355 | 5.0 | 13.0 | 0.01 | 0.36 | 0.36 | 94 | 1014.3 |
| 20260506214752 | 51 | 335 | 5.0 | 12.0 | 0.01 | 0.36 | 0.36 | 94 | 1014.3 |
| 20260506214740 | 51 | 37 | 5.0 | 13.0 | 0.01 | 0.36 | 0.36 | 94 | 1014.3 |
| 20260506214516 | 52 | 32 | 5.0 | 12.0 | 0.01 | 0.36 | 0.36 | 94 | 1014.2 |
| 20260506214443 | 52 | 0 | 5.0 | 12.0 | 0.01 | 0.36 | 0.36 | 94 | 1014.0 |
| 20260506214434 | 52 | 5 | 5.0 | 12.0 | 0.01 | 0.36 | 0.36 | 94 | 1014.1 |
| 20260506214211 | 51 | 342 | 5.0 | 12.0 | 0.01 | 0.36 | 0.36 | 94 | 1014.1 |
| 20260506214113 | 51 | 19 | 5.0 | 12.0 | 0.01 | 0.36 | 0.36 | 94 | 1014.2 |
| 20260506214011 | 51 | 51 | 6.0 | 12.0 | 0.01 | 0.36 | 0.36 | 94 | 1014.3 |
| 20260506213937 | 51 | 13 | 6.0 | 12.0 | 0.01 | 0.36 | 0.36 | 94 | 1014.5 |
| 20260506213928 | 51 | 350 | 6.0 | 12.0 | 0.01 | 0.36 | 0.36 | 94 | 1014.4 |
| 20260506213749 | 52 | 348 | 6.0 | 12.0 | 0.01 | 0.36 | 0.36 | 94 | 1014.5 |
| 20260506213736 | 52 | 351 | 6.0 | 12.0 | 0.01 | 0.36 | 0.36 | 94 | 1014.4 |
| 20260506213513 | 52 | 28 | 5.0 | 12.0 | 0.01 | 0.36 | 0.36 | 94 | 1014.5 |
| 20260506213407 | 52 | 327 | 5.0 | 11.0 | 0.01 | 0.36 | 0.36 | 94 | 1014.5 |
| 20260506213258 | 52 | 0 | 5.0 | 11.0 | 0.01 | 0.36 | 0.36 | 94 | 1014.5 |
| 20260506213157 | 52 | 333 | 5.0 | 11.0 | 0.01 | 0.36 | 0.36 | 94 | 1014.5 |
| 20260506213120 | 52 | 334 | 4.0 | 10.0 | 0.01 | 0.36 | 0.36 | 94 | 1014.4 |
| 20260506213104 | 52 | 0 | 5.0 | 11.0 | 0.01 | 0.36 | 0.36 | 94 | 1014.6 |
| 20260506213042 | 52 | 351 | 5.0 | 11.0 | 0.01 | 0.36 | 0.36 | 94 | 1014.5 |
| 20260506212757 | 52 | 0 | 4.0 | 10.0 | 0.01 | 0.36 | 0.36 | 94 | 1014.6 |
| 20260506212657 | 52 | 355 | 3.0 | 10.0 | 0.01 | 0.36 | 0.36 | 94 | 1014.5 |
| 20260506212600 | 52 | 337 | 3.0 | 10.0 | 0.01 | 0.36 | 0.36 | 94 | 1014.5 |
| 20260506212457 | 52 | 294 | 3.0 | 10.0 | 0.01 | 0.36 | 0.36 | 94 | 1014.5 |
| 20260506212438 | 53 | 333 | 3.0 | 10.0 | 0.01 | 0.36 | 0.36 | 94 | 1014.2 |
| 20260506212433 | 53 | 0 | 3.0 | 10.0 | 0.01 | 0.36 | 0.36 | 94 | 1014.2 |
| 20260506212427 | 53 | 5 | 3.0 | 8.0 | 0.01 | 0.36 | 0.36 | 94 | 1014.1 |
| 20260506212414 | 53 | 331 | 3.0 | 10.0 | 0.01 | 0.36 | 0.36 | 94 | 1014.3 |
| 20260506212359 | 53 | 355 | 3.0 | 10.0 | 0.01 | 0.36 | 0.36 | 94 | 1014.3 |
| 20260506211857 | 53 | 59 | 3.0 | 8.0 | 0.01 | 0.36 | 0.36 | 94 | 1014.1 |
| 20260506211759 | 53 | 59 | 3.0 | 8.0 | 0.01 | 0.36 | 0.36 | 94 | 1014.0 |
| 20260506211658 | 53 | 11 | 2.0 | 8.0 | 0.01 | 0.36 | 0.36 | 94 | 1013.9 |
| 20260506211557 | 53 | 46 | 2.0 | 7.0 | 0.01 | 0.36 | 0.36 | 94 | 1013.8 |
| 20260506211500 | 53 | 11 | 3.0 | 7.0 | 0.01 | 0.36 | 0.36 | 94 | 1013.7 |
| 20260506211425 | 53 | 17 | 2.0 | 8.0 | 0.01 | 0.36 | 0.36 | 94 | 1013.8 |
| 20260506211414 | 53 | 355 | 2.0 | 8.0 | 0.01 | 0.36 | 0.36 | 94 | 1013.7 |
| 20260506211153 | 53 | 51 | 2.0 | 8.0 | 0.01 | 0.36 | 0.36 | 94 | 1013.9 |
| 20260506211140 | 53 | 13 | 3.0 | 9.0 | 0.01 | 0.36 | 0.36 | 94 | 1014.0 |
| 20260506211135 | 53 | 355 | 4.0 | 11.0 | 0.01 | 0.36 | 0.36 | 94 | 1014.0 |
| 20260506211131 | 53 | 28 | 4.0 | 13.0 | 0.01 | 0.36 | 0.36 | 94 | 1013.9 |
| 20260506211115 | 53 | 19 | 3.0 | 8.0 | 0.01 | 0.36 | 0.36 | 94 | 1014.0 |
| 20260506211057 | 53 | 5 | 3.0 | 9.0 | 0.01 | 0.36 | 0.36 | 94 | 1014.0 |
| 20260506210555 | 53 | 38 | 5.0 | 13.0 | 0.00 | 0.35 | 0.35 | 94 | 1013.7 |
| 20260506210452 | 53 | 65 | 5.0 | 13.0 | 0.00 | 0.35 | 0.35 | 94 | 1013.6 |
| 20260506210352 | 53 | 24 | 5.0 | 13.0 | 0.00 | 0.35 | 0.35 | 94 | 1013.4 |
| 20260506210254 | 53 | 338 | 5.0 | 13.0 | 0.00 | 0.35 | 0.35 | 94 | 1013.4 |
| 20260506210153 | 53 | 48 | 5.0 | 13.0 | 0.00 | 0.35 | 0.35 | 94 | 1013.5 |
| 20260506210054 | 52 | 21 | 5.0 | 13.0 | 0.00 | 0.35 | 0.35 | 94 | 1013.6 |
| 20260506205952 | 52 | 26 | 5.0 | 13.0 | 0.00 | 0.35 | 0.35 | 94 | 1013.9 |
| 20260506205928 | 52 | 5 | 4.0 | 13.0 | 0.00 | 0.35 | 0.35 | 94 | 1014.2 |
| 20260506205915 | 52 | 19 | 4.0 | 13.0 | 0.00 | 0.35 | 0.35 | 94 | 1014.1 |
| 20260506205704 | 52 | 17 | 4.0 | 11.0 | 0.00 | 0.35 | 0.35 | 94 | 1014.3 |
| 20260506205553 | 52 | 0 | 4.0 | 11.0 | 0.00 | 0.35 | 0.35 | 94 | 1014.4 |
| 20260506205526 | 52 | 13 | 3.0 | 11.0 | 0.00 | 0.35 | 0.35 | 94 | 1014.6 |
| 20260506205513 | 52 | 319 | 3.0 | 11.0 | 0.00 | 0.35 | 0.35 | 94 | 1014.5 |
| 20260506205253 | 52 | 343 | 4.0 | 11.0 | 0.00 | 0.35 | 0.35 | 94 | 1014.6 |
| 20260506205153 | 52 | 329 | 4.0 | 11.0 | 0.00 | 0.35 | 0.35 | 94 | 1014.6 |
| 20260506205053 | 52 | 334 | 4.0 | 11.0 | 0.00 | 0.35 | 0.35 | 94 | 1014.5 |
| 20260506204953 | 53 | 255 | 4.0 | 11.0 | 0.00 | 0.35 | 0.35 | 94 | 1014.4 |
| 20260506204937 | 53 | 27 | 4.0 | 11.0 | 0.00 | 0.35 | 0.35 | 94 | 1014.5 |
| 20260506204922 | 53 | 329 | 4.0 | 11.0 | 0.00 | 0.35 | 0.35 | 94 | 1014.4 |
| 20260506204648 | 53 | 334 | 4.0 | 10.0 | 0.00 | 0.35 | 0.35 | 94 | 1014.4 |
| 20260506204545 | 53 | 328 | 3.0 | 10.0 | 0.00 | 0.35 | 0.35 | 94 | 1014.5 |
| 20260506204446 | 53 | 289 | 3.0 | 10.0 | 0.00 | 0.35 | 0.35 | 94 | 1014.5 |
| 20260506204350 | 53 | 296 | 3.0 | 10.0 | 0.00 | 0.35 | 0.35 | 94 | 1014.4 |
| 20260506204245 | 53 | 308 | 3.0 | 8.0 | 0.00 | 0.35 | 0.35 | 94 | 1014.3 |
| 20260506204140 | 53 | 302 | 2.0 | 8.0 | 0.00 | 0.35 | 0.35 | 94 | 1014.4 |
| 20260506204038 | 54 | 344 | 2.0 | 8.0 | 0.00 | 0.35 | 0.35 | 94 | 1014.4 |
| 20260506203939 | 54 | 336 | 2.0 | 6.0 | 0.00 | 0.35 | 0.35 | 94 | 1014.4 |
| 20260506203839 | 54 | 311 | 1.0 | 6.0 | 0.00 | 0.35 | 0.35 | 94 | 1014.5 |
| 20260506203742 | 54 | 297 | 1.0 | 5.0 | 0.00 | 0.35 | 0.35 | 94 | 1014.4 |
| 20260506203634 | 54 | 316 | 1.0 | 5.0 | 0.00 | 0.35 | 0.35 | 94 | 1014.3 |
| 20260506203534 | 55 | 311 | 1.0 | 5.0 | 0.00 | 0.35 | 0.35 | 94 | 1014.2 |
| 20260506203435 | 55 | 309 | 1.0 | 5.0 | 0.00 | 0.35 | 0.35 | 94 | 1014.1 |
| 20260506203333 | 55 | 327 | 1.0 | 5.0 | 0.00 | 0.35 | 0.35 | 94 | 1014.0 |
| 20260506203233 | 55 | 251 | 1.0 | 7.0 | 0.00 | 0.35 | 0.35 | 94 | 1014.0 |
| 20260506203133 | 55 | 250 | 2.0 | 7.0 | 0.00 | 0.35 | 0.35 | 94 | 1013.9 |
| 20260506203033 | 55 | 250 | 2.0 | 7.0 | 0.00 | 0.35 | 0.35 | 94 | 1014.0 |
| 20260506202930 | 54 | 250 | 2.0 | 7.0 | 0.00 | 0.35 | 0.35 | 94 | 1013.9 |
| 20260506202829 | 54 | 250 | 2.0 | 7.0 | 0.00 | 0.35 | 0.35 | 94 | 1014.1 |
| 20260506202729 | 54 | 267 | 3.0 | 7.0 | 0.00 | 0.35 | 0.35 | 94 | 1014.1 |
| 20260506202628 | 54 | 267 | 3.0 | 7.0 | 0.00 | 0.35 | 0.35 | 94 | 1014.1 |
| 20260506202602 | 54 | 294 | 3.0 | 7.0 | 0.00 | 0.35 | 0.35 | 94 | 1014.3 |
| 20260506202549 | 54 | 309 | 3.0 | 7.0 | 0.00 | 0.35 | 0.35 | 94 | 1014.2 |
| 20260506202323 | 54 | 300 | 2.0 | 7.0 | 0.00 | 0.35 | 0.35 | 94 | 1014.3 |
| 20260506202251 | 54 | 311 | 3.0 | 7.0 | 0.00 | 0.35 | 0.35 | 94 | 1014.4 |
| 20260506202242 | 54 | 315 | 3.0 | 7.0 | 0.00 | 0.35 | 0.35 | 94 | 1014.3 |
| 20260506202022 | 54 | 315 | 3.0 | 6.0 | 0.00 | 0.35 | 0.35 | 94 | 1014.4 |
| 20260506201922 | 54 | 334 | 3.0 | 6.0 | 0.00 | 0.35 | 0.35 | 94 | 1014.4 |
| 20260506201822 | 54 | 12 | 3.0 | 6.0 | 0.00 | 0.35 | 0.35 | 94 | 1014.4 |
| 20260506201721 | 54 | 302 | 2.0 | 6.0 | 0.00 | 0.35 | 0.35 | 94 | 1014.4 |
| 20260506201620 | 54 | 338 | 2.0 | 6.0 | 0.00 | 0.35 | 0.35 | 94 | 1014.3 |
| 20260506201522 | 55 | 19 | 2.0 | 6.0 | 0.00 | 0.35 | 0.35 | 94 | 1014.3 |
| 20260506201423 | 55 | 341 | 2.0 | 6.0 | 0.00 | 0.35 | 0.35 | 94 | 1014.3 |
| 20260506201351 | 55 | 334 | 2.0 | 6.0 | 0.00 | 0.35 | 0.35 | 94 | 1014.3 |
| 20260506201342 | 55 | 334 | 2.0 | 6.0 | 0.00 | 0.35 | 0.35 | 94 | 1014.3 |
| 20260506201156 | 55 | 317 | 2.0 | 5.0 | 0.00 | 0.35 | 0.35 | 94 | 1014.1 |
| 20260506201143 | 55 | 285 | 2.0 | 5.0 | 0.00 | 0.35 | 0.35 | 94 | 1014.3 |
| 20260506200919 | 55 | 323 | 2.0 | 5.0 | 0.00 | 0.35 | 0.35 | 94 | 1014.0 |
| 20260506200819 | 55 | 0 | 2.0 | 5.0 | 0.00 | 0.35 | 0.35 | 94 | 1013.8 |
| 20260506200719 | 55 | 5 | 2.0 | 5.0 | 0.00 | 0.35 | 0.35 | 94 | 1013.8 |
| 20260506200652 | 55 | 11 | 2.0 | 5.0 | 0.00 | 0.35 | 0.35 | 94 | 1013.7 |
| 20260506200640 | 55 | 11 | 2.0 | 5.0 | 0.00 | 0.35 | 0.35 | 94 | 1013.8 |
| 20260506200418 | 55 | 5 | 2.0 | 5.0 | 0.00 | 0.35 | 0.35 | 94 | 1013.7 |
| 20260506200315 | 55 | 349 | 2.0 | 5.0 | 0.00 | 0.35 | 0.35 | 94 | 1013.8 |
| 20260506200215 | 55 | 349 | 2.0 | 5.0 | 0.00 | 0.35 | 0.35 | 94 | 1013.7 |
| 20260506200115 | 55 | 26 | 2.0 | 7.0 | 0.00 | 0.35 | 0.35 | 94 | 1013.6 |
| 20260506200016 | 55 | 36 | 3.0 | 9.0 | 0.00 | 0.35 | 0.35 | 94 | 1013.6 |
| 20260506195915 | 55 | 36 | 3.0 | 9.0 | 0.00 | 0.35 | 0.35 | 94 | 1013.6 |
| 20260506195814 | 55 | 355 | 3.0 | 9.0 | 0.00 | 0.35 | 0.35 | 94 | 1013.7 |
| 20260506195716 | 55 | 349 | 3.0 | 9.0 | 0.00 | 0.35 | 0.35 | 94 | 1013.9 |
| 20260506195615 | 55 | 329 | 4.0 | 9.0 | 0.00 | 0.35 | 0.35 | 94 | 1013.9 |
| 20260506195515 | 55 | 279 | 4.0 | 9.0 | 0.00 | 0.35 | 0.35 | 94 | 1013.9 |
| 20260506195416 | 55 | 248 | 4.0 | 9.0 | 0.00 | 0.35 | 0.35 | 94 | 1013.9 |
| 20260506195317 | 55 | 246 | 5.0 | 9.0 | 0.00 | 0.35 | 0.35 | 94 | 1013.9 |
| 20260506195309 | 55 | 300 | 5.0 | 10.0 | 0.00 | 0.35 | 0.35 | 94 | 1014.0 |
| 20260506195306 | 55 | 292 | 5.0 | 10.0 | 0.00 | 0.35 | 0.35 | 94 | 1014.1 |
| 20260506195251 | 55 | 311 | 5.0 | 10.0 | 0.00 | 0.35 | 0.35 | 94 | 1014.1 |
| 20260506195234 | 55 | 337 | 5.0 | 10.0 | 0.00 | 0.35 | 0.35 | 94 | 1014.1 |
| 20260506194958 | 56 | 298 | 5.0 | 10.0 | 0.00 | 0.35 | 0.35 | 94 | 1014.0 |
| 20260506194954 | 56 | 314 | 4.0 | 10.0 | 0.00 | 0.35 | 0.35 | 94 | 1014.1 |
| 20260506194948 | 56 | 325 | 4.0 | 10.0 | 0.00 | 0.35 | 0.35 | 94 | 1014.2 |
| 20260506194934 | 55 | 169 | 5.0 | 10.0 | 0.00 | 0.35 | 0.35 | 94 | 1013.9 |
| 20260506194907 | 55 | 28 | 5.0 | 10.0 | 0.00 | 0.35 | 0.35 | 94 | 1014.0 |
| 20260506194838 | 55 | 289 | 5.0 | 10.0 | 0.00 | 0.35 | 0.35 | 94 | 1014.0 |
| 20260506194212 | 56 | 340 | 4.0 | 10.0 | 0.00 | 0.35 | 0.35 | 94 | 1014.2 |
| 20260506194135 | 56 | 340 | 4.0 | 10.0 | 0.00 | 0.35 | 0.35 | 94 | 1014.3 |
| 20260506194126 | 56 | 332 | 4.0 | 10.0 | 0.00 | 0.35 | 0.35 | 94 | 1014.3 |
| 20260506193903 | 56 | 284 | 4.0 | 10.0 | 0.00 | 0.35 | 0.35 | 94 | 1014.3 |
| 20260506193805 | 56 | 290 | 4.0 | 10.0 | 0.00 | 0.35 | 0.35 | 94 | 1014.3 |
| 20260506193703 | 56 | 330 | 4.0 | 10.0 | 0.00 | 0.35 | 0.35 | 94 | 1014.4 |
| 20260506193605 | 56 | 329 | 4.0 | 10.0 | 0.00 | 0.35 | 0.35 | 94 | 1014.5 |
| 20260506193501 | 56 | 232 | 4.0 | 10.0 | 0.00 | 0.35 | 0.35 | 94 | 1014.5 |
| 20260506193357 | 56 | 317 | 4.0 | 10.0 | 0.00 | 0.35 | 0.35 | 94 | 1014.5 |
| 20260506193300 | 56 | 247 | 4.0 | 9.0 | 0.00 | 0.35 | 0.35 | 94 | 1014.4 |
| 20260506193157 | 56 | 298 | 4.0 | 11.0 | 0.00 | 0.35 | 0.35 | 94 | 1014.3 |
| 20260506193058 | 56 | 307 | 4.0 | 11.0 | 0.00 | 0.35 | 0.35 | 94 | 1014.4 |
| 20260506192947 | 57 | 325 | 4.0 | 11.0 | 0.00 | 0.35 | 0.35 | 94 | 1014.4 |
| 20260506192847 | 57 | 324 | 4.0 | 11.0 | 0.00 | 0.35 | 0.35 | 94 | 1014.4 |
| 20260506192830 | 57 | 317 | 4.0 | 11.0 | 0.00 | 0.35 | 0.35 | 94 | 1014.3 |
| 20260506192815 | 57 | 305 | 4.0 | 11.0 | 0.00 | 0.35 | 0.35 | 94 | 1014.4 |
| 20260506192543 | 57 | 324 | 4.0 | 11.0 | 0.00 | 0.35 | 0.35 | 94 | 1014.4 |
| 20260506192438 | 57 | 271 | 4.0 | 11.0 | 0.00 | 0.35 | 0.35 | 94 | 1014.4 |
| 20260506192337 | 57 | 238 | 4.0 | 11.0 | 0.00 | 0.35 | 0.35 | 94 | 1014.4 |
| 20260506192238 | 57 | 274 | 4.0 | 11.0 | 0.00 | 0.35 | 0.35 | 94 | 1014.4 |
| 20260506192210 | 57 | 315 | 3.0 | 8.0 | 0.00 | 0.35 | 0.35 | 94 | 1014.4 |
| 20260506192159 | 57 | 261 | 3.0 | 11.0 | 0.00 | 0.35 | 0.35 | 94 | 1014.5 |
| 20260506191935 | 58 | 244 | 3.0 | 7.0 | 0.00 | 0.35 | 0.35 | 94 | 1014.3 |
| 20260506191832 | 58 | 331 | 3.0 | 7.0 | 0.00 | 0.35 | 0.35 | 94 | 1014.1 |
| 20260506191732 | 59 | 336 | 3.0 | 7.0 | 0.00 | 0.35 | 0.35 | 94 | 1014.2 |
| 20260506191632 | 59 | 344 | 3.0 | 7.0 | 0.00 | 0.35 | 0.35 | 94 | 1014.3 |
| 20260506191532 | 60 | 11 | 3.0 | 9.0 | 0.00 | 0.35 | 0.35 | 94 | 1014.4 |
| 20260506191427 | 60 | 298 | 3.0 | 9.0 | 0.00 | 0.35 | 0.35 | 94 | 1014.4 |
| 20260506191326 | 60 | 307 | 3.0 | 10.0 | 0.00 | 0.35 | 0.35 | 94 | 1014.4 |
| 20260506191225 | 60 | 301 | 3.0 | 10.0 | 0.00 | 0.35 | 0.35 | 94 | 1013.9 |
| 20260506191124 | 59 | 329 | 3.0 | 10.0 | 0.00 | 0.35 | 0.35 | 94 | 1013.7 |
| 20260506191046 | 59 | 207 | 4.0 | 10.0 | 0.00 | 0.35 | 0.35 | 94 | 1014.4 |
| 20260506191038 | 59 | 232 | 4.0 | 10.0 | 0.00 | 0.35 | 0.35 | 94 | 1014.0 |
| 20260506190816 | 59 | 225 | 4.0 | 10.0 | 0.00 | 0.35 | 0.35 | 94 | 1014.7 |
| 20260506190715 | 59 | 243 | 4.0 | 10.0 | 0.00 | 0.35 | 0.35 | 94 | 1014.8 |
| 20260506190648 | 59 | 280 | 4.0 | 10.0 | 0.00 | 0.35 | 0.35 | 94 | 1014.7 |
| 20260506190638 | 59 | 242 | 4.0 | 10.0 | 0.00 | 0.35 | 0.35 | 94 | 1014.7 |
| 20260506190410 | 59 | 222 | 4.0 | 10.0 | 0.00 | 0.35 | 0.35 | 94 | 1014.8 |
| 20260506190310 | 59 | 249 | 4.0 | 11.0 | 0.00 | 0.35 | 0.35 | 94 | 1015.0 |
| 20260506190207 | 59 | 220 | 4.0 | 11.0 | 0.00 | 0.35 | 0.35 | 94 | 1015.1 |
| 20260506190107 | 59 | 310 | 4.0 | 11.0 | 0.00 | 0.35 | 0.35 | 94 | 1014.8 |
| 20260506190008 | 59 | 323 | 4.0 | 11.0 | 0.00 | 0.35 | 0.35 | 94 | 1014.7 |
| 20260506185951 | 59 | 320 | 5.0 | 15.0 | 0.00 | 0.35 | 0.35 | 94 | 1014.8 |
| 20260506185946 | 59 | 319 | 5.0 | 15.0 | 0.00 | 0.35 | 0.35 | 94 | 1015.0 |
| 20260506185929 | 59 | 218 | 4.0 | 15.0 | 0.00 | 0.35 | 0.35 | 94 | 1014.7 |
| 20260506185907 | 59 | 224 | 5.0 | 15.0 | 0.00 | 0.35 | 0.35 | 94 | 1014.7 |
| 20260506185454 | 59 | 222 | 5.0 | 15.0 | 0.00 | 0.35 | 0.35 | 94 | 1015.1 |
| 20260506185354 | 59 | 261 | 5.0 | 15.0 | 0.00 | 0.35 | 0.35 | 94 | 1015.1 |
| 20260506185255 | 59 | 304 | 4.0 | 15.0 | 0.00 | 0.35 | 0.35 | 94 | 1015.1 |
| 20260506185154 | 59 | 238 | 4.0 | 15.0 | 0.00 | 0.35 | 0.35 | 94 | 1015.1 |
| 20260506185054 | 59 | 208 | 4.0 | 15.0 | 0.00 | 0.35 | 0.35 | 94 | 1014.8 |
| 20260506185028 | 59 | 198 | 3.0 | 12.0 | 0.00 | 0.35 | 0.35 | 94 | 1014.7 |
| 20260506185016 | 59 | 246 | 4.0 | 15.0 | 0.00 | 0.35 | 0.35 | 94 | 1014.7 |
| 20260506184754 | 59 | 244 | 3.0 | 12.0 | 0.00 | 0.35 | 0.35 | 94 | 1014.7 |
| 20260506184655 | 59 | 225 | 3.0 | 11.0 | 0.00 | 0.35 | 0.35 | 94 | 1014.7 |
| 20260506184555 | 59 | 211 | 3.0 | 11.0 | 0.00 | 0.35 | 0.35 | 94 | 1014.7 |
| 20260506184509 | 59 | 199 | 3.0 | 11.0 | 0.00 | 0.35 | 0.35 | 94 | 1014.6 |
| 20260506184454 | 59 | 225 | 3.0 | 11.0 | 0.00 | 0.35 | 0.35 | 94 | 1014.7 |
| 20260506184440 | 59 | 237 | 3.0 | 11.0 | 0.00 | 0.35 | 0.35 | 94 | 1014.6 |
| 20260506184155 | 59 | 191 | 4.0 | 11.0 | 0.00 | 0.35 | 0.35 | 94 | 1014.6 |
| 20260506184054 | 59 | 244 | 4.0 | 11.0 | 0.00 | 0.35 | 0.35 | 94 | 1014.7 |
| 20260506183954 | 59 | 259 | 4.0 | 11.0 | 0.00 | 0.35 | 0.35 | 94 | 1014.6 |
| 20260506183856 | 59 | 227 | 4.0 | 11.0 | 0.00 | 0.35 | 0.35 | 94 | 1014.6 |
| 20260506183754 | 59 | 239 | 4.0 | 11.0 | 0.00 | 0.35 | 0.35 | 94 | 1014.7 |
| 20260506183739 | 59 | 207 | 4.0 | 9.0 | 0.00 | 0.35 | 0.35 | 94 | 1014.6 |
| 20260506183734 | 59 | 235 | 4.0 | 9.0 | 0.00 | 0.35 | 0.35 | 94 | 1014.7 |
| 20260506183730 | 59 | 229 | 4.0 | 9.0 | 0.00 | 0.35 | 0.35 | 94 | 1014.7 |
| 20260506183718 | 59 | 294 | 4.0 | 9.0 | 0.00 | 0.35 | 0.35 | 94 | 1014.6 |
| 20260506183535 | 59 | 207 | 4.0 | 9.0 | 0.00 | 0.35 | 0.35 | 94 | 1014.6 |
| 20260506183218 | 59 | 229 | 4.0 | 8.0 | 0.00 | 0.35 | 0.35 | 94 | 1014.7 |
| 20260506183212 | 59 | 217 | 4.0 | 8.0 | 0.00 | 0.35 | 0.35 | 94 | 1014.6 |
| 20260506183201 | 59 | 220 | 4.0 | 8.0 | 0.00 | 0.35 | 0.35 | 94 | 1014.6 |
| 20260506183138 | 59 | 261 | 4.0 | 8.0 | 0.00 | 0.35 | 0.35 | 94 | 1014.6 |
| 20260506182755 | 59 | 230 | 3.0 | 8.0 | 0.00 | 0.35 | 0.35 | 94 | 1014.6 |
| 20260506182654 | 59 | 193 | 3.0 | 8.0 | 0.00 | 0.35 | 0.35 | 94 | 1014.5 |
| 20260506182557 | 59 | 209 | 3.0 | 8.0 | 0.00 | 0.35 | 0.35 | 94 | 1014.6 |
| 20260506182455 | 59 | 215 | 3.0 | 8.0 | 0.00 | 0.35 | 0.35 | 94 | 1014.6 |
| 20260506182356 | 59 | 199 | 3.0 | 8.0 | 0.00 | 0.35 | 0.35 | 94 | 1014.5 |
| 20260506182325 | 59 | 227 | 3.0 | 8.0 | 0.00 | 0.35 | 0.35 | 94 | 1014.6 |
| 20260506182312 | 59 | 224 | 3.0 | 8.0 | 0.00 | 0.35 | 0.35 | 94 | 1014.6 |
| 20260506182049 | 59 | 203 | 3.0 | 8.0 | 0.00 | 0.35 | 0.35 | 94 | 1014.6 |
| 20260506181949 | 59 | 209 | 3.0 | 8.0 | 0.00 | 0.35 | 0.35 | 94 | 1014.6 |
| 20260506181849 | 59 | 219 | 3.0 | 8.0 | 0.00 | 0.35 | 0.35 | 94 | 1014.6 |
| 20260506181746 | 59 | 205 | 3.0 | 8.0 | 0.00 | 0.35 | 0.35 | 94 | 1014.6 |
| 20260506181647 | 59 | 202 | 3.0 | 10.0 | 0.00 | 0.35 | 0.35 | 94 | 1014.6 |
| 20260506181604 | 60 | 219 | 3.0 | 10.0 | 0.00 | 0.35 | 0.35 | 94 | 1014.6 |
| 20260506181552 | 59 | 225 | 4.0 | 10.0 | 0.00 | 0.35 | 0.35 | 94 | 1014.5 |
| 20260506181531 | 59 | 177 | 4.0 | 10.0 | 0.00 | 0.35 | 0.35 | 94 | 1014.5 |
| 20260506181404 | 59 | 234 | 4.0 | 10.0 | 0.00 | 0.35 | 0.35 | 94 | 1014.6 |
| 20260506181144 | 60 | 190 | 3.0 | 10.0 | 0.00 | 0.35 | 0.35 | 94 | 1014.5 |
| 20260506181041 | 60 | 190 | 3.0 | 10.0 | 0.00 | 0.35 | 0.35 | 94 | 1014.4 |
| 20260506181009 | 60 | 197 | 3.0 | 10.0 | 0.00 | 0.35 | 0.35 | 94 | 1014.4 |
| 20260506181001 | 60 | 193 | 3.0 | 10.0 | 0.00 | 0.35 | 0.35 | 94 | 1014.5 |
| 20260506180739 | 60 | 182 | 3.0 | 10.0 | 0.00 | 0.35 | 0.35 | 94 | 1014.3 |
| 20260506180638 | 60 | 268 | 3.0 | 10.0 | 0.00 | 0.35 | 0.35 | 94 | 1014.2 |
| 20260506180541 | 60 | 215 | 3.0 | 10.0 | 0.00 | 0.35 | 0.35 | 94 | 1014.1 |
| 20260506180439 | 59 | 222 | 3.0 | 10.0 | 0.00 | 0.35 | 0.35 | 94 | 1013.9 |
| 20260506180340 | 59 | 236 | 3.0 | 10.0 | 0.00 | 0.35 | 0.35 | 94 | 1013.8 |
| 20260506180236 | 59 | 275 | 3.0 | 10.0 | 0.00 | 0.35 | 0.35 | 94 | 1013.8 |
| 20260506180138 | 59 | 211 | 3.0 | 10.0 | 0.00 | 0.35 | 0.35 | 94 | 1013.8 |
| 20260506180033 | 59 | 187 | 4.0 | 10.0 | 0.00 | 0.35 | 0.35 | 94 | 1013.9 |
| 20260506175932 | 59 | 207 | 4.0 | 11.0 | 0.00 | 0.35 | 0.35 | 94 | 1013.9 |
| 20260506175838 | 59 | 211 | 4.0 | 15.0 | 0.00 | 0.35 | 0.35 | 94 | 1013.8 |
| 20260506175802 | 59 | 200 | 4.0 | 15.0 | 0.00 | 0.35 | 0.35 | 94 | 1014.0 |
| 20260506175754 | 59 | 236 | 5.0 | 15.0 | 0.00 | 0.35 | 0.35 | 94 | 1013.9 |
| 20260506175534 | 59 | 194 | 4.0 | 15.0 | 0.00 | 0.35 | 0.35 | 94 | 1014.1 |
| 20260506175434 | 59 | 144 | 4.0 | 15.0 | 0.00 | 0.35 | 0.35 | 94 | 1014.2 |
| 20260506175329 | 59 | 177 | 4.0 | 15.0 | 0.00 | 0.35 | 0.35 | 94 | 1014.2 |
| 20260506175228 | 59 | 265 | 4.0 | 15.0 | 0.00 | 0.35 | 0.35 | 94 | 1014.2 |
| 20260506175131 | 59 | 200 | 5.0 | 15.0 | 0.00 | 0.35 | 0.35 | 94 | 1014.1 |
| 20260506175029 | 59 | 170 | 5.0 | 15.0 | 0.00 | 0.35 | 0.35 | 94 | 1014.2 |
| 20260506174930 | 59 | 230 | 5.0 | 15.0 | 0.00 | 0.35 | 0.35 | 94 | 1014.2 |
| 20260506174829 | 59 | 215 | 5.0 | 13.0 | 0.00 | 0.35 | 0.35 | 94 | 1014.2 |
| 20260506174747 | 58 | 198 | 5.0 | 13.0 | 0.00 | 0.35 | 0.35 | 94 | 1014.0 |
| 20260506174742 | 58 | 225 | 5.0 | 13.0 | 0.00 | 0.35 | 0.35 | 94 | 1014.0 |
| 20260506174731 | 59 | 216 | 5.0 | 13.0 | 0.00 | 0.35 | 0.35 | 94 | 1014.2 |
| 20260506174709 | 58 | 243 | 5.0 | 13.0 | 0.00 | 0.35 | 0.35 | 94 | 1014.1 |
| 20260506174329 | 58 | 241 | 5.0 | 13.0 | 0.00 | 0.35 | 0.35 | 94 | 1014.1 |
| 20260506174300 | 58 | 200 | 5.0 | 13.0 | 0.00 | 0.35 | 0.35 | 94 | 1014.3 |
| 20260506174229 | 58 | 200 | 5.0 | 13.0 | 0.00 | 0.35 | 0.35 | 94 | 1014.3 |
| 20260506174129 | 58 | 177 | 5.0 | 13.0 | 0.00 | 0.35 | 0.35 | 94 | 1014.6 |
| 20260506174030 | 58 | 229 | 4.0 | 13.0 | 0.00 | 0.35 | 0.35 | 94 | 1014.7 |
| 20260506173943 | 59 | 225 | 4.0 | 11.0 | 0.00 | 0.35 | 0.35 | 94 | 1015.0 |
| 20260506173932 | 58 | 207 | 4.0 | 13.0 | 0.00 | 0.35 | 0.35 | 94 | 1015.0 |
| 20260506173913 | 58 | 230 | 4.0 | 11.0 | 0.00 | 0.35 | 0.35 | 94 | 1015.0 |
| 20260506173628 | 59 | 234 | 4.0 | 10.0 | 0.00 | 0.35 | 0.35 | 94 | 1015.0 |
| 20260506173528 | 59 | 234 | 4.0 | 10.0 | 0.00 | 0.35 | 0.35 | 94 | 1015.0 |
| 20260506173429 | 59 | 215 | 4.0 | 10.0 | 0.00 | 0.35 | 0.35 | 94 | 1015.0 |
| 20260506173359 | 59 | 227 | 4.0 | 10.0 | 0.00 | 0.35 | 0.35 | 94 | 1015.0 |
| 20260506173349 | 59 | 248 | 4.0 | 10.0 | 0.00 | 0.35 | 0.35 | 94 | 1015.0 |
| 20260506173128 | 59 | 196 | 4.0 | 11.0 | 0.00 | 0.35 | 0.35 | 94 | 1014.7 |
| 20260506173030 | 59 | 207 | 4.0 | 12.0 | 0.00 | 0.35 | 0.35 | 94 | 1014.5 |
| 20260506173007 | 59 | 212 | 5.0 | 12.0 | 0.00 | 0.35 | 0.35 | 94 | 1014.5 |
| 20260506172956 | 59 | 184 | 4.0 | 12.0 | 0.00 | 0.35 | 0.35 | 94 | 1014.4 |
| 20260506172726 | 59 | 222 | 5.0 | 12.0 | 0.00 | 0.35 | 0.35 | 94 | 1014.4 |
| 20260506172624 | 59 | 169 | 5.0 | 12.0 | 0.00 | 0.35 | 0.35 | 94 | 1014.4 |
| 20260506172525 | 59 | 194 | 5.0 | 12.0 | 0.00 | 0.35 | 0.35 | 94 | 1014.4 |
| 20260506172458 | 58 | 213 | 5.0 | 12.0 | 0.00 | 0.35 | 0.35 | 94 | 1014.3 |
| 20260506172449 | 59 | 242 | 5.0 | 12.0 | 0.00 | 0.35 | 0.35 | 94 | 1014.2 |
| 20260506172224 | 58 | 203 | 5.0 | 12.0 | 0.00 | 0.35 | 0.35 | 94 | 1014.2 |
| 20260506172153 | 58 | 199 | 4.0 | 11.0 | 0.00 | 0.35 | 0.35 | 94 | 1013.7 |
| 20260506172148 | 58 | 205 | 4.0 | 12.0 | 0.00 | 0.35 | 0.35 | 94 | 1013.5 |
| 20260506172136 | 58 | 202 | 5.0 | 12.0 | 0.00 | 0.35 | 0.35 | 94 | 1014.0 |
| 20260506172118 | 58 | 204 | 4.0 | 12.0 | 0.00 | 0.35 | 0.35 | 94 | 1013.6 |
| 20260506171838 | 58 | 201 | 4.0 | 11.0 | 0.00 | 0.35 | 0.35 | 94 | 1013.8 |
| 20260506171827 | 58 | 205 | 4.0 | 11.0 | 0.00 | 0.35 | 0.35 | 94 | 1013.5 |
| 20260506171802 | 58 | 206 | 4.0 | 11.0 | 0.00 | 0.35 | 0.35 | 94 | 1013.6 |
| 20260506171420 | 58 | 216 | 4.0 | 11.0 | 0.00 | 0.35 | 0.35 | 94 | 1013.9 |
| 20260506171322 | 58 | 230 | 4.0 | 11.0 | 0.00 | 0.35 | 0.35 | 94 | 1013.9 |
| 20260506171253 | 58 | 186 | 4.0 | 14.0 | 0.00 | 0.35 | 0.35 | 94 | 1013.8 |
| 20260506171243 | 57 | 212 | 4.0 | 14.0 | 0.00 | 0.35 | 0.35 | 94 | 1013.7 |
| 20260506171056 | 58 | 193 | 4.0 | 14.0 | 0.00 | 0.35 | 0.35 | 94 | 1014.5 |
| 20260506171044 | 57 | 180 | 4.0 | 14.0 | 0.00 | 0.35 | 0.35 | 94 | 1014.2 |
| 20260506170820 | 58 | 205 | 4.0 | 14.0 | 0.00 | 0.35 | 0.35 | 94 | 1014.7 |
| 20260506170755 | 58 | 221 | 4.0 | 14.0 | 0.00 | 0.35 | 0.35 | 94 | 1015.0 |
| 20260506170744 | 58 | 205 | 4.0 | 14.0 | 0.00 | 0.35 | 0.35 | 94 | 1015.0 |
| 20260506170520 | 58 | 223 | 4.0 | 14.0 | 0.00 | 0.35 | 0.35 | 94 | 1015.2 |
| 20260506170421 | 58 | 196 | 4.0 | 14.0 | 0.00 | 0.35 | 0.35 | 94 | 1015.3 |
| 20260506170320 | 58 | 239 | 4.0 | 14.0 | 0.00 | 0.35 | 0.35 | 94 | 1015.2 |
| 20260506170252 | 58 | 195 | 4.0 | 13.0 | 0.00 | 0.35 | 0.35 | 94 | 1015.1 |
| 20260506170241 | 58 | 210 | 4.0 | 13.0 | 0.00 | 0.35 | 0.35 | 94 | 1015.2 |
| 20260506170021 | 58 | 208 | 4.0 | 13.0 | 0.00 | 0.35 | 0.35 | 94 | 1015.1 |
| 20260506165951 | 58 | 198 | 4.0 | 13.0 | 0.00 | 0.35 | 0.35 | 94 | 1015.0 |
| 20260506165941 | 58 | 227 | 4.0 | 13.0 | 0.00 | 0.35 | 0.35 | 94 | 1015.0 |
| 20260506165720 | 58 | 229 | 4.0 | 13.0 | 0.00 | 0.35 | 0.35 | 94 | 1015.0 |
| 20260506165620 | 58 | 211 | 4.0 | 9.0 | 0.00 | 0.35 | 0.35 | 94 | 1014.8 |
| 20260506165520 | 58 | 227 | 4.0 | 9.0 | 0.00 | 0.35 | 0.35 | 94 | 1014.7 |
| 20260506165456 | 58 | 221 | 4.0 | 9.0 | 0.00 | 0.35 | 0.35 | 94 | 1014.6 |
| 20260506165444 | 58 | 214 | 4.0 | 9.0 | 0.00 | 0.35 | 0.35 | 94 | 1014.6 |
| 20260506165223 | 58 | 182 | 4.0 | 9.0 | 0.00 | 0.35 | 0.35 | 94 | 1014.6 |
| 20260506165158 | 58 | 207 | 4.0 | 8.0 | 0.00 | 0.35 | 0.35 | 94 | 1014.8 |
| 20260506165145 | 58 | 210 | 4.0 | 8.0 | 0.00 | 0.35 | 0.35 | 94 | 1014.6 |
| 20260506164920 | 58 | 224 | 4.0 | 8.0 | 0.00 | 0.35 | 0.35 | 94 | 1014.8 |
| 20260506164821 | 58 | 210 | 4.0 | 9.0 | 0.00 | 0.35 | 0.35 | 94 | 1014.7 |
| 20260506164715 | 58 | 228 | 4.0 | 9.0 | 0.00 | 0.35 | 0.35 | 94 | 1014.8 |
| 20260506164615 | 58 | 220 | 4.0 | 11.0 | 0.00 | 0.35 | 0.35 | 94 | 1014.8 |
| 20260506164547 | 58 | 207 | 4.0 | 11.0 | 0.00 | 0.35 | 0.35 | 94 | 1014.8 |
| 20260506164537 | 58 | 186 | 4.0 | 11.0 | 0.00 | 0.35 | 0.35 | 94 | 1014.8 |
| 20260506164314 | 58 | 202 | 4.0 | 11.0 | 0.00 | 0.35 | 0.35 | 94 | 1015.0 |
| 20260506164240 | 58 | 213 | 4.0 | 11.0 | 0.00 | 0.35 | 0.35 | 94 | 1014.8 |
| 20260506164228 | 58 | 218 | 4.0 | 11.0 | 0.00 | 0.35 | 0.35 | 94 | 1014.8 |
| 20260506164010 | 58 | 211 | 4.0 | 11.0 | 0.00 | 0.35 | 0.35 | 94 | 1014.7 |
| 20260506163943 | 58 | 268 | 4.0 | 11.0 | 0.00 | 0.35 | 0.35 | 94 | 1014.7 |
| 20260506163932 | 58 | 213 | 4.0 | 11.0 | 0.00 | 0.35 | 0.35 | 94 | 1014.7 |
| 20260506163708 | 58 | 209 | 4.0 | 11.0 | 0.00 | 0.35 | 0.35 | 94 | 1014.7 |
| 20260506163606 | 58 | 209 | 4.0 | 9.0 | 0.00 | 0.35 | 0.35 | 94 | 1014.6 |
| 20260506163506 | 58 | 194 | 4.0 | 9.0 | 0.00 | 0.35 | 0.35 | 94 | 1014.5 |
| 20260506163441 | 59 | 218 | 4.0 | 11.0 | 0.00 | 0.35 | 0.35 | 94 | 1014.5 |
| 20260506163429 | 58 | 201 | 4.0 | 9.0 | 0.00 | 0.35 | 0.35 | 94 | 1014.5 |
| 20260506163221 | 59 | 208 | 4.0 | 11.0 | 0.00 | 0.35 | 0.35 | 94 | 1014.3 |
| 20260506163209 | 59 | 217 | 4.0 | 11.0 | 0.00 | 0.35 | 0.35 | 94 | 1014.5 |
| 20260506163146 | 59 | 205 | 4.0 | 11.0 | 0.00 | 0.35 | 0.35 | 94 | 1014.4 |
| 20260506163022 | 59 | 198 | 4.0 | 11.0 | 0.00 | 0.35 | 0.35 | 94 | 1014.4 |
| 20260506162802 | 59 | 227 | 4.0 | 11.0 | 0.00 | 0.35 | 0.35 | 94 | 1014.4 |
| 20260506162703 | 59 | 232 | 4.0 | 11.0 | 0.00 | 0.35 | 0.35 | 94 | 1014.4 |
| 20260506162633 | 59 | 211 | 5.0 | 11.0 | 0.00 | 0.35 | 0.35 | 94 | 1014.5 |
| 20260506162622 | 59 | 219 | 4.0 | 11.0 | 0.00 | 0.35 | 0.35 | 94 | 1014.5 |
| 20260506162358 | 59 | 244 | 5.0 | 11.0 | 0.00 | 0.35 | 0.35 | 94 | 1014.5 |
| 20260506162258 | 59 | 198 | 5.0 | 11.0 | 0.00 | 0.35 | 0.35 | 94 | 1014.5 |
| 20260506162157 | 59 | 203 | 4.0 | 11.0 | 0.00 | 0.35 | 0.35 | 94 | 1014.5 |
| 20260506162056 | 59 | 202 | 4.0 | 10.0 | 0.00 | 0.35 | 0.35 | 94 | 1014.4 |
| 20260506161952 | 59 | 254 | 4.0 | 10.0 | 0.00 | 0.35 | 0.35 | 94 | 1014.3 |
| 20260506161852 | 59 | 223 | 4.0 | 10.0 | 0.00 | 0.35 | 0.35 | 94 | 1014.3 |
| 20260506161823 | 58 | 262 | 4.0 | 9.0 | 0.00 | 0.35 | 0.35 | 94 | 1014.3 |
| 20260506161812 | 58 | 218 | 4.0 | 10.0 | 0.00 | 0.35 | 0.35 | 94 | 1014.3 |
| 20260506161552 | 58 | 222 | 4.0 | 10.0 | 0.00 | 0.35 | 0.35 | 94 | 1014.4 |
| 20260506161447 | 58 | 211 | 4.0 | 10.0 | 0.00 | 0.35 | 0.35 | 94 | 1014.6 |
| 20260506161347 | 58 | 200 | 4.0 | 10.0 | 0.00 | 0.35 | 0.35 | 94 | 1014.6 |
| 20260506161246 | 58 | 247 | 4.0 | 10.0 | 0.00 | 0.35 | 0.35 | 94 | 1014.6 |
| 20260506161146 | 58 | 274 | 4.0 | 10.0 | 0.00 | 0.35 | 0.35 | 94 | 1014.6 |
| 20260506161046 | 58 | 236 | 4.0 | 10.0 | 0.00 | 0.35 | 0.35 | 94 | 1014.5 |
| 20260506160935 | 58 | 248 | 4.0 | 10.0 | 0.00 | 0.35 | 0.35 | 94 | 1014.5 |
| 20260506160835 | 58 | 295 | 5.0 | 10.0 | 0.00 | 0.35 | 0.35 | 94 | 1014.6 |
| 20260506160735 | 58 | 251 | 5.0 | 10.0 | 0.00 | 0.35 | 0.35 | 94 | 1014.7 |
| 20260506160708 | 58 | 277 | 4.0 | 10.0 | 0.00 | 0.35 | 0.35 | 94 | 1014.7 |
| 20260506160657 | 58 | 296 | 5.0 | 10.0 | 0.00 | 0.35 | 0.35 | 94 | 1014.7 |
| 20260506160432 | 58 | 252 | 5.0 | 12.0 | 0.00 | 0.35 | 0.35 | 94 | 1014.7 |
| 20260506160328 | 58 | 282 | 5.0 | 12.0 | 0.00 | 0.35 | 0.35 | 94 | 1014.7 |
| 20260506160307 | 58 | 317 | 5.0 | 12.0 | 0.00 | 0.35 | 0.35 | 94 | 1014.7 |
| 20260506160253 | 58 | 266 | 5.0 | 12.0 | 0.00 | 0.35 | 0.35 | 94 | 1014.7 |
| 20260506160100 | 58 | 289 | 6.0 | 12.0 | 0.00 | 0.35 | 0.35 | 94 | 1014.7 |
| 20260506160050 | 58 | 293 | 6.0 | 12.0 | 0.00 | 0.35 | 0.35 | 94 | 1014.7 |
| 20260506155826 | 58 | 293 | 6.0 | 13.0 | 0.00 | 0.35 | 0.35 | 94 | 1014.8 |
| 20260506155724 | 58 | 288 | 6.0 | 13.0 | 0.00 | 0.35 | 0.35 | 94 | 1014.7 |
| 20260506155625 | 58 | 309 | 6.0 | 13.0 | 0.00 | 0.35 | 0.35 | 94 | 1014.7 |
| 20260506155522 | 58 | 319 | 6.0 | 13.0 | 0.00 | 0.35 | 0.35 | 94 | 1014.7 |
| 20260506155410 | 58 | 255 | 6.0 | 13.0 | 0.00 | 0.35 | 0.35 | 94 | 1014.8 |
| 20260506155309 | 59 | 270 | 5.0 | 13.0 | 0.00 | 0.35 | 0.35 | 94 | 1014.6 |
| 20260506155210 | 59 | 330 | 5.0 | 13.0 | 0.00 | 0.35 | 0.35 | 94 | 1014.6 |
| 20260506155108 | 60 | 306 | 5.0 | 13.0 | 0.00 | 0.35 | 0.35 | 94 | 1014.5 |
| 20260506155009 | 60 | 299 | 4.0 | 13.0 | 0.00 | 0.35 | 0.35 | 94 | 1014.6 |
| 20260506154903 | 61 | 301 | 4.0 | 11.0 | 0.00 | 0.35 | 0.35 | 94 | 1014.6 |
| 20260506154802 | 61 | 339 | 4.0 | 11.0 | 0.00 | 0.35 | 0.35 | 94 | 1014.6 |
| 20260506154702 | 62 | 315 | 3.0 | 11.0 | 0.00 | 0.35 | 0.35 | 94 | 1014.6 |
| 20260506154603 | 62 | 324 | 3.0 | 11.0 | 0.00 | 0.35 | 0.35 | 94 | 1014.4 |
| 20260506154505 | 62 | 236 | 3.0 | 11.0 | 0.00 | 0.35 | 0.35 | 94 | 1014.4 |
| 20260506154429 | 62 | 329 | 2.0 | 11.0 | 0.00 | 0.35 | 0.35 | 94 | 1014.4 |
| 20260506154419 | 62 | 288 | 3.0 | 11.0 | 0.00 | 0.35 | 0.35 | 94 | 1014.4 |
| 20260506154157 | 62 | 235 | 2.0 | 11.0 | 0.00 | 0.35 | 0.35 | 94 | 1014.4 |
| 20260506154056 | 62 | 234 | 2.0 | 11.0 | 0.00 | 0.35 | 0.35 | 94 | 1014.4 |
| 20260506153957 | 62 | 249 | 3.0 | 11.0 | 0.00 | 0.35 | 0.35 | 94 | 1014.2 |
| 20260506153849 | 62 | 230 | 3.0 | 11.0 | 0.00 | 0.35 | 0.35 | 94 | 1014.2 |
| 20260506153748 | 62 | 296 | 3.0 | 10.0 | 0.00 | 0.35 | 0.35 | 94 | 1014.1 |
| 20260506153648 | 62 | 232 | 3.0 | 10.0 | 0.00 | 0.35 | 0.35 | 94 | 1014.1 |
| 20260506153551 | 62 | 347 | 3.0 | 10.0 | 0.00 | 0.35 | 0.35 | 94 | 1014.1 |
| 20260506153515 | 62 | 236 | 3.0 | 12.0 | 0.00 | 0.35 | 0.35 | 94 | 1014.2 |
| 20260506153505 | 62 | 238 | 3.0 | 10.0 | 0.00 | 0.35 | 0.35 | 94 | 1014.2 |
| 20260506153240 | 62 | 236 | 4.0 | 12.0 | 0.00 | 0.35 | 0.35 | 94 | 1014.1 |
| 20260506153157 | 62 | 241 | 4.0 | 12.0 | 0.00 | 0.35 | 0.35 | 94 | 1014.0 |
| 20260506153151 | 62 | 209 | 4.0 | 13.0 | 0.00 | 0.35 | 0.35 | 94 | 1014.1 |
| 20260506153141 | 62 | 208 | 4.0 | 12.0 | 0.00 | 0.35 | 0.35 | 94 | 1014.1 |
| 20260506153119 | 62 | 265 | 4.0 | 12.0 | 0.00 | 0.35 | 0.35 | 94 | 1014.0 |
| 20260506152735 | 62 | 238 | 4.0 | 13.0 | 0.00 | 0.35 | 0.35 | 94 | 1014.0 |
| 20260506152656 | 62 | 246 | 5.0 | 16.0 | 0.00 | 0.35 | 0.35 | 94 | 1013.9 |
| 20260506152643 | 62 | 229 | 4.0 | 16.0 | 0.00 | 0.35 | 0.35 | 94 | 1014.0 |
| 20260506152619 | 62 | 186 | 4.0 | 16.0 | 0.00 | 0.35 | 0.35 | 94 | 1013.8 |
| 20260506152435 | 62 | 246 | 5.0 | 16.0 | 0.00 | 0.35 | 0.35 | 94 | 1013.9 |
| 20260506152325 | 62 | 192 | 5.0 | 16.0 | 0.00 | 0.35 | 0.35 | 94 | 1013.8 |
| 20260506152222 | 62 | 192 | 5.0 | 16.0 | 0.00 | 0.35 | 0.35 | 94 | 1013.6 |
| 20260506152123 | 62 | 244 | 6.0 | 16.0 | 0.00 | 0.35 | 0.35 | 94 | 1013.7 |
| 20260506152057 | 62 | 207 | 5.0 | 16.0 | 0.00 | 0.35 | 0.35 | 94 | 1013.6 |
| 20260506152044 | 62 | 221 | 5.0 | 16.0 | 0.00 | 0.35 | 0.35 | 94 | 1013.6 |
| 20260506151816 | 62 | 217 | 5.0 | 16.0 | 0.00 | 0.35 | 0.35 | 94 | 1013.5 |
| 20260506151716 | 62 | 254 | 5.0 | 14.0 | 0.00 | 0.35 | 0.35 | 94 | 1013.5 |
| 20260506151615 | 62 | 149 | 4.0 | 14.0 | 0.00 | 0.35 | 0.35 | 94 | 1013.5 |
| 20260506151514 | 62 | 199 | 5.0 | 14.0 | 0.00 | 0.35 | 0.35 | 94 | 1013.5 |
| 20260506151414 | 62 | 196 | 5.0 | 14.0 | 0.00 | 0.35 | 0.35 | 94 | 1013.5 |
| 20260506151345 | 62 | 189 | 4.0 | 14.0 | 0.00 | 0.35 | 0.35 | 94 | 1013.4 |
| 20260506151333 | 62 | 217 | 4.0 | 14.0 | 0.00 | 0.35 | 0.35 | 94 | 1013.4 |
| 20260506151147 | 62 | 216 | 4.0 | 11.0 | 0.00 | 0.35 | 0.35 | 94 | 1013.4 |
| 20260506151135 | 62 | 211 | 4.0 | 11.0 | 0.00 | 0.35 | 0.35 | 94 | 1013.2 |
| 20260506150908 | 62 | 207 | 4.0 | 11.0 | 0.00 | 0.35 | 0.35 | 94 | 1013.4 |
| 20260506150759 | 62 | 205 | 4.0 | 11.0 | 0.00 | 0.35 | 0.35 | 94 | 1013.4 |
| 20260506150658 | 62 | 205 | 4.0 | 11.0 | 0.00 | 0.35 | 0.35 | 94 | 1013.2 |
| 20260506150627 | 62 | 221 | 4.0 | 11.0 | 0.00 | 0.35 | 0.35 | 94 | 1013.4 |
| 20260506150619 | 62 | 241 | 4.0 | 11.0 | 0.00 | 0.35 | 0.35 | 94 | 1013.2 |
| 20260506150358 | 62 | 213 | 4.0 | 11.0 | 0.00 | 0.35 | 0.35 | 94 | 1013.4 |
| 20260506150252 | 62 | 173 | 4.0 | 11.0 | 0.00 | 0.35 | 0.35 | 94 | 1013.2 |
| 20260506150151 | 62 | 212 | 4.0 | 10.0 | 0.00 | 0.35 | 0.35 | 94 | 1013.2 |
| 20260506150054 | 61 | 214 | 4.0 | 10.0 | 0.00 | 0.35 | 0.35 | 94 | 1013.2 |
| 20260506145954 | 62 | 215 | 4.0 | 10.0 | 0.00 | 0.35 | 0.35 | 94 | 1013.1 |
| 20260506145852 | 61 | 209 | 4.0 | 23.0 | 0.00 | 0.35 | 0.35 | 94 | 1013.1 |
| 20260506145750 | 61 | 182 | 4.0 | 23.0 | 0.00 | 0.35 | 0.35 | 94 | 1013.0 |
| 20260506145649 | 61 | 194 | 4.0 | 23.0 | 0.00 | 0.35 | 0.35 | 94 | 1013.0 |
| 20260506145549 | 61 | 209 | 5.0 | 23.0 | 0.00 | 0.35 | 0.35 | 94 | 1013.0 |
| 20260506145449 | 61 | 190 | 5.0 | 23.0 | 0.00 | 0.35 | 0.35 | 94 | 1013.0 |
| 20260506145347 | 61 | 223 | 5.0 | 23.0 | 0.00 | 0.35 | 0.35 | 94 | 1012.9 |
| 20260506145307 | 61 | 137 | 5.0 | 23.0 | 0.00 | 0.35 | 0.35 | 94 | 1013.0 |
| 20260506145256 | 61 | 209 | 5.0 | 23.0 | 0.00 | 0.35 | 0.35 | 94 | 1012.9 |
| 20260506145044 | 61 | 222 | 5.0 | 12.0 | 0.00 | 0.35 | 0.35 | 94 | 1013.1 |
| 20260506145033 | 61 | 204 | 5.0 | 23.0 | 0.00 | 0.35 | 0.35 | 94 | 1013.0 |
| 20260506145026 | 61 | 188 | 5.0 | 12.0 | 0.00 | 0.35 | 0.35 | 94 | 1013.1 |
| 20260506145008 | 61 | 186 | 5.0 | 22.0 | 0.00 | 0.35 | 0.35 | 94 | 1013.1 |
| 20260506144625 | 61 | 221 | 5.0 | 12.0 | 0.00 | 0.35 | 0.35 | 94 | 1013.1 |
| 20260506144528 | 61 | 134 | 5.0 | 12.0 | 0.00 | 0.35 | 0.35 | 94 | 1013.1 |
| 20260506144428 | 61 | 211 | 5.0 | 12.0 | 0.00 | 0.35 | 0.35 | 94 | 1013.0 |
| 20260506144327 | 61 | 215 | 5.0 | 12.0 | 0.00 | 0.35 | 0.35 | 94 | 1013.0 |
| 20260506144259 | 61 | 203 | 4.0 | 12.0 | 0.00 | 0.35 | 0.35 | 94 | 1012.9 |
| 20260506144248 | 61 | 227 | 5.0 | 12.0 | 0.00 | 0.35 | 0.35 | 94 | 1013.0 |
| 20260506144100 | 61 | 192 | 4.0 | 13.0 | 0.00 | 0.35 | 0.35 | 94 | 1012.8 |
| 20260506144047 | 61 | 210 | 4.0 | 11.0 | 0.00 | 0.35 | 0.35 | 94 | 1012.9 |
| 20260506143820 | 61 | 200 | 4.0 | 13.0 | 0.00 | 0.35 | 0.35 | 94 | 1012.8 |
| 20260506143713 | 61 | 221 | 4.0 | 13.0 | 0.00 | 0.35 | 0.35 | 94 | 1012.7 |
| 20260506143610 | 61 | 116 | 4.0 | 13.0 | 0.00 | 0.35 | 0.35 | 94 | 1012.6 |
| 20260506143529 | 61 | 200 | 4.0 | 13.0 | 0.00 | 0.35 | 0.35 | 94 | 1012.7 |
| 20260506143517 | 61 | 152 | 4.0 | 13.0 | 0.00 | 0.35 | 0.35 | 94 | 1012.7 |
| 20260506143509 | 61 | 153 | 4.0 | 13.0 | 0.00 | 0.35 | 0.35 | 94 | 1012.6 |
| 20260506143448 | 61 | 200 | 4.0 | 13.0 | 0.00 | 0.35 | 0.35 | 94 | 1012.7 |